Location: Baia della Croce
(79.1414°N, 11.7419°E)
Time: 21:52:33
(UTC+00:00)

Daily predictions for brighter satellites

Satellite Brightness Start Highest point End
(mag) Time Altitude Azimuth Time Altitude Azimuth Time Altitude Azimuth
Okean 2 Rocket 3.5 12:00:43 10° NW 12:05:06 64° WSW 12:09:28 10° SSE
Sich 1 Rocket 4.2 12:00:43 10° NW 12:05:15 58° WSW 12:09:44 10° S
CZ-2D R/B 3.9 12:01:00 10° SSE 12:05:15 67° WSW 12:09:38 10° NW
IGS 5A 3.4 12:02:16 10° NE 12:06:26 77° NW 12:10:38 10° WSW
Spot 2 3.9 12:02:33 10° E 12:06:45 71° NNE 12:10:49 10° WNW
Cosmos 1459 Rocket 4.3 12:00:52 10° NNW 12:07:02 70° WSW 12:13:07 10° SSE
IDEFIX/ARIANE 42P 3.2 12:03:22 10° SSE 12:08:35 60° WSW 12:13:51 10° NW
Resurs 1-3 3.6 12:04:31 10° NE 12:08:57 71° NNW 12:13:21 10° WSW
IRS-1C Rocket 4.1 12:03:52 10° E 12:09:08 73° N 12:14:25 10° W
Cosmos 1953 2.2 12:05:14 10° NW 12:09:14 74° NE 12:13:14 10° ESE
IRS-1D 4.5 12:04:29 10° S 12:09:40 49° WSW 12:14:54 10° NNW
CZ-4B R/B 3.3 12:04:09 10° E 12:09:50 77° NNE 12:15:32 10° WNW
Envisat 3.0 12:05:57 10° ESE 12:11:03 73° NNE 12:16:09 10° WNW
Cosmos 1869 3.3 12:07:17 10° W 12:11:05 55° NNW 12:14:55 10° ENE
PAYLOAD A 4.1 12:06:32 10° SE 12:11:20 74° SW 12:16:05 10° NW
Cosmos 1455 Rocket 3.0 12:07:06 10° NW 12:11:28 83° NE 12:15:51 10° SE
SPOT 3 Rocket 3.6 12:06:23 10° NE 12:11:37 86° NW 12:16:50 10° WSW
Cosmos 2181 Rocket 4.1 12:05:49 10° SSW 12:12:01 84° SE 12:18:20 10° NE
Meteor 1-16 Rocket 4.4 12:06:07 10° NW 12:12:04 88° NNE 12:17:52 10° SE
Aureole 3 Rocket 2.6 12:09:22 10° W 12:12:45 46° N 12:15:44 10° ENE
Cosmos 1515 Rocket 3.6 12:08:23 10° SW 12:12:47 85° SE 12:17:11 10° NE
Meteor 1-31 Rocket 2.7 12:08:58 10° ESE 12:12:51 75° NE 12:16:46 10° NW
Cosmos 389 Rocket 2.5 12:09:37 10° WSW 12:13:14 69° NNW 12:16:50 10° ENE
Cosmos 1733 3.6 12:10:05 10° NW 12:13:52 66° WSW 12:17:38 10° SSE
Nadezhda 3 Rocket 4.2 12:07:49 10° S 12:13:55 67° ESE 12:20:04 10° NNE
Cosmos 1802 Rocket 4.3 12:08:02 10° NNW 12:14:10 72° WSW 12:20:19 10° SSE
Cosmos 1812 Rocket 3.7 12:10:44 10° WNW 12:15:09 56° N 12:19:31 10° E
MOS 1 4.3 12:09:40 10° ENE 12:15:26 83° NNW 12:21:11 10° WSW
CZ-4B DEB 4.3 12:12:40 10° NE 12:16:00 89° NW 12:19:18 10° SW
Cosmos 1470 2.8 12:12:51 10° NW 12:16:47 85° SW 12:20:43 10° SE
Cosmos 1975 4.1 12:13:14 10° NNW 12:16:54 35° W 12:20:33 10° SSW
CORIOLIS 4.1 12:11:47 10° E 12:17:10 74° NNE 12:22:32 10° WNW
Cosmos 1726 2.1 12:13:28 10° NW 12:17:15 89° NE 12:21:01 10° SE
CZ-2C R/B 4.4 12:16:19 10° NNW 12:17:49 11° N 12:19:19 10° NNE
Meteor 1-4 Rocket 2.6 12:14:13 10° WSW 12:17:59 81° NNW 12:21:48 10° ENE
Helios 1B rocket 4.1 12:14:34 10° SSW 12:18:08 27° W 12:21:41 10° NNW
Cosmos 1805 3.8 12:14:28 10° NW 12:18:22 60° WSW 12:22:14 10° SSE
SMAP 3.0 12:16:47 10° E 12:21:27 68° NNE 12:26:06 10° WNW
ALOS 2 3.3 12:18:04 10° NNE 12:22:22 48° ESE 12:26:39 10° S
Cosmos 2228 Rocket 3.3 12:19:29 10° SSW 12:24:00 77° SE 12:28:35 10° NE
YAOGAN 1 2.6 12:20:26 10° ENE 12:24:43 60° N 12:29:01 10° W
Cosmos 1606 2.7 12:21:59 10° WSW 12:25:48 64° NNW 12:29:39 10° NE
Cosmos 1455 2.3 12:22:03 10° WNW 12:25:48 53° NNE 12:29:34 10° E
Cosmos 1782 2.8 12:21:55 10° SW 12:25:56 83° NW 12:29:57 10° NE
SJ-7 4.5 12:21:57 10° ESE 12:26:10 67° NNE 12:30:21 10° NW
Resurs 1-4 Rocket 3.4 12:24:42 10° SSW 12:29:31 34° W 12:34:21 10° NNW
Cosmos 1315 Rocket 2.7 12:26:13 10° WNW 12:30:12 79° NNE 12:34:13 10° ESE
Okean O Rocket 1.6 12:26:07 10° E 12:30:31 66° NNE 12:34:54 10° WNW
Cosmos 1513 Rocket 4.5 12:24:46 10° NW 12:30:58 86° NE 12:37:05 10° SE
Cosmos 1707 Rocket 3.9 12:27:12 10° SSW 12:31:36 65° ESE 12:36:03 10° NE
Cosmos 1933 3.3 12:27:38 10° WSW 12:31:42 71° NW 12:35:44 10° NE
ADEOS II 3.1 12:27:01 10° S 12:32:01 42° W 12:37:03 10° NNW
ADEOS Rocket 4.3 12:27:29 10° N 12:32:06 20° NE 12:36:26 10° E
ARGOS 3.2 12:27:18 10° ENE 12:32:41 70° N 12:38:06 10° W
SL-16 R/B 4.4 12:28:07 10° W 12:32:50 28° SW 12:37:34 10° SSE
Cosmos 1812 2.8 12:29:02 10° SW 12:32:56 85° SE 12:36:51 10° NE
Meteor 2-10 4.3 12:28:03 10° NW 12:33:21 72° SW 12:38:28 10° SSE
CZ-2C R/B 3.3 12:27:50 10° E 12:33:35 69° N 12:39:24 10° WNW
Spot 2 Rocket 3.5 12:28:32 10° NE 12:33:39 89° NW 12:38:46 10° SW
Cosmos 1300 2.7 12:30:10 10° NW 12:34:00 64° NNE 12:37:50 10° ESE
SPOT 1/Viking Rocket 3.6 12:28:59 10° NE 12:34:11 86° NW 12:39:22 10° WSW
Meteor 2-10 Rocket 3.7 12:28:57 10° WNW 12:34:42 77° NNE 12:40:12 10° ESE
Iridium 4 Rocket 4.2 12:30:25 10° WNW 12:35:58 40° N 12:41:17 10° ENE
ERS-1 Rocket 3.1 12:32:35 10° NE 12:37:41 87° SE 12:42:46 10° SW
Cosmos 2142 Rocket 4.5 12:31:32 10° WNW 12:37:46 70° NNE 12:43:56 10° ESE
FENGYUN 3A 3.9 12:32:24 10° SE 12:37:49 78° SW 12:43:15 10° NW
Okean-O 2.7 12:33:47 10° E 12:38:12 63° N 12:42:37 10° WNW
USA 290 4.4 12:35:41 10° SW 12:38:33 30° S 12:41:26 10° ESE
NOAA 6 4.0 12:33:43 10° ESE 12:38:55 80° NNE 12:44:09 10° WNW
PAYLOAD B 4.2 12:34:49 10° ESE 12:40:24 83° NNE 12:46:01 10° WNW
Meteor 1-27 Rocket 4.1 12:34:47 10° SSW 12:40:41 69° ESE 12:46:29 10° NE
Alouette 2 Rocket 3.8 12:36:43 10° WSW 12:40:42 88° SSE 12:46:21 10° ENE
Landsat 7 3.8 12:36:07 10° NE 12:40:54 76° NNW 12:45:41 10° WSW
Cosmos 1833 Rocket 4.3 12:37:31 10° SW 12:42:37 36° SSE 12:47:42 10° ESE
Cosmos 2058 Rocket 3.1 12:38:08 10° WNW 12:42:37 62° NNE 12:47:07 10° ESE
Cosmos 1726 Rocket 3.5 12:38:17 10° WNW 12:42:38 65° NNE 12:47:01 10° ESE
Cosmos 1891 Rocket 4.5 12:36:39 10° NW 12:42:44 89° NE 12:48:49 10° SE
FREGAT/IRIS 2.7 12:41:36 10° NE 12:43:46 32° NNW 12:45:55 10° W
Cosmos 1758 3.5 12:40:34 10° NW 12:44:42 79° SW 12:48:50 10° SSE
NOAA 11 4.2 12:39:14 10° ESE 12:44:44 74° NNE 12:50:14 10° WNW
Feng Yun 1-1 Rocket 4.3 12:39:07 10° E 12:44:47 78° N 12:50:37 10° WNW
Meteor 1-27 4.2 12:39:58 10° W 12:45:43 73° N 12:51:23 10° E
Helios 1A Rocket 3.0 12:41:58 10° E 12:46:05 62° N 12:50:11 10° WNW
SJ-12 3.9 12:42:07 10° SE 12:46:17 85° NE 12:50:28 10° NW
PSLV R/B 3.7 12:42:33 10° ESE 12:46:24 70° NNE 12:50:20 10° NW
H-2A R/B 2.6 12:42:08 10° ESE 12:46:29 73° NNE 12:50:59 10° WNW
Cosmos 1464 Rocket 4.1 12:41:34 10° NW 12:47:49 89° NE 12:54:09 10° SE
YAOGAN 6 2.6 12:44:45 10° ESE 12:48:23 62° NNE 12:52:04 10° NW
Cosmos 1356 Rocket 4.2 12:44:28 10° NW 12:48:40 57° WSW 12:52:54 10° SSE
Meteor 2-1 Rocket 4.2 12:43:16 10° WNW 12:48:58 75° NNE 12:54:34 10° ESE
Cosmos 1484 Rocket 3.0 12:45:56 10° SE 12:49:59 84° SW 12:54:02 10° NW
ARIANE 5 R/B 3.5 12:45:22 10° S 12:50:23 48° WSW 12:55:22 10° NNW
ARGOS Delta rocket 3.9 12:46:24 10° SSE 12:50:51 74° WSW 12:55:30 10° NNW
CZ-2D R/B 3.3 12:47:39 10° E 12:51:25 53° NNE 12:55:09 10° WNW
MOS 1-B 4.4 12:45:55 10° ESE 12:51:45 88° NNE 12:57:35 10° WNW
Cosmos 1842 Rocket 3.7 12:47:32 10° W 12:51:59 58° NNW 12:56:24 10° ENE
Cosmos 1151 Rocket 3.1 12:48:57 10° WSW 12:53:22 71° NNW 12:57:48 10° NE
Meteor 2-15 4.5 12:47:35 10° W 12:53:44 66° N 12:59:55 10° E
Aureole 3 3.3 12:50:02 10° WNW 12:54:22 57° NNE 12:57:51 10° E
Ariane Rocket 3.0 12:49:27 10° ENE 12:54:34 73° NNW 12:59:42 10° W
Cosmos 1437 Rocket 2.9 12:50:33 10° SW 12:54:36 84° SE 12:58:45 10° NE
Cosmos 1242 Rocket 2.8 12:51:11 10° SSW 12:54:41 62° SE 12:58:10 10° NE
Meteor 2-8 Rocket 4.4 12:49:22 10° WNW 12:55:27 66° N 13:01:32 10° E
Cosmos 1939 Rocket 2.9 12:52:48 10° E 12:56:47 57° NNE 13:00:41 10° WNW
CZ-2D R/B 3.6 12:52:20 10° SSW 12:57:07 31° W 13:01:51 10° NNW
CZ-4B R/B 2.5 12:53:38 10° SE 12:57:17 84° NE 13:00:54 10° NW
Okean 1 Rocket 3.7 12:53:06 10° NW 12:57:29 60° WSW 13:01:49 10° SSE
Cosmos 2082 Rocket 3.8 12:52:33 10° SW 12:57:44 36° SSE 13:02:55 10° E
CZ-4B R/B 4.2 12:53:41 10° SE 12:58:07 86° SW 13:02:40 10° NW
Cosmos 2016 Rocket 4.5 12:52:11 10° NNW 12:58:18 62° WSW 13:04:20 10° S
Cosmos 1766 4.2 12:55:03 10° NW 12:58:57 50° WSW 13:02:49 10° S
FengYun 1-2 T 4.3 12:53:25 10° ESE 12:59:04 79° NNE 13:04:47 10° WNW
CSL-04 Debris 4.2 12:54:29 10° E 12:59:54 73° N 13:05:20 10° W
Spot 4 4.1 12:55:05 10° NE 12:59:56 69° SE 13:04:45 10° SSW
NOAA 12 4.1 12:55:17 10° ESE 13:00:34 79° NNE 13:05:53 10° WNW
USA 281 4.1 12:55:19 10° ENE 13:01:40 48° SE 13:08:01 10° SW
Cosmos 1328 Rocket 3.6 12:57:39 10° WSW 13:02:04 71° NNW 13:06:28 10° NE
Cosmos 1626 4.2 13:01:37 10° ENE 13:02:43 11° ENE 13:03:35 10° NE
HJ-1C 3.7 13:00:13 10° ENE 13:03:28 45° N 13:06:43 10° WNW
Okean 1 3.6 12:59:36 10° SSW 13:03:34 60° ESE 13:07:20 11° NE
Cosmos 405 3.0 13:00:14 10° WNW 13:03:47 62° N 13:07:19 10° E
Cosmos 1908 3.2 13:01:49 10° NW 13:05:42 89° SW 13:09:37 10° SE
CARTOSAT-1 3.6 13:02:13 10° NE 13:06:33 74° NNW 13:10:54 10° WSW
PSLV R/B 4.1 13:02:24 10° SSE 13:06:35 60° WSW 13:10:47 10° NW
ARIANE 5 R/B 2.6 13:02:57 10° ENE 13:07:20 74° NNW 13:11:46 10° WSW
METEOR-M 4.5 13:01:58 10° SSE 13:07:21 73° SW 13:12:45 10° NW
IRIDIUM 104 4.4 13:02:49 10° NNW 13:08:03 66° NE 13:13:17 10° SE
Cosmos 1703 Rocket 4.1 13:04:49 10° S 13:09:09 52° ESE 13:13:16 11° NE
Helios 1A 3.8 13:06:00 11° NE 13:09:45 38° ESE 13:13:42 10° S
Meteor 2-2 Rocket 4.3 13:04:02 10° W 13:09:52 74° N 13:15:50 10° ENE
AQUARIUS 4.1 13:06:13 10° ESE 13:10:43 73° NNE 13:15:15 10° NW
USA 32 4.2 13:05:51 10° NNW 13:11:10 80° WSW 13:16:27 10° SSE
IRS-1A Rocket 4.4 13:05:18 10° ENE 13:11:12 78° N 13:16:58 10° W
Cosmos 1553 Rocket 4.1 13:04:50 10° WNW 13:11:14 64° N 13:17:39 10° E
Cosmos 1400 Rocket 3.2 13:07:37 10° NW 13:11:47 72° SW 13:15:53 10° SE
GP-B 4.4 13:08:47 11° NNE 13:12:04 24° NNW 13:15:39 10° W
SJ-11-01 4.3 13:09:49 10° E 13:14:28 63° N 13:19:07 10° WNW
SL-08 RB Rocket 3.7 13:10:06 10° E 13:14:31 60° N 13:18:57 10° WNW
CZ-4B DEB 4.3 13:09:33 10° ESE 13:15:09 89° SSW 13:20:47 10° NW
Cosmos 1437 3.4 13:13:11 10° S 13:15:59 40° ESE 13:18:30 12° NE
IRIDIUM 114 4.3 13:11:59 10° NNW 13:17:14 69° ENE 13:22:28 10° SE
Cosmos 2279 Rocket 4.0 13:11:59 10° NW 13:18:18 76° NE 13:24:37 10° ESE
SPOT 5 3.1 13:12:58 10° NE 13:18:21 81° NNW 13:23:33 10° WSW
Meteor 1-26 Rocket 4.2 13:13:18 10° WSW 13:18:45 82° NNW 13:24:18 10° ENE
MetOp-B 4.2 13:14:38 10° ENE 13:20:01 77° NNW 13:25:24 10° WSW
Cosmos 2227 Rocket 4.1 13:16:46 10° SE 13:20:06 16° ESE 13:23:24 10° ENE
Cosmos-2242 3.1 13:16:24 10° WNW 13:20:37 56° N 13:24:52 10° E
CZ-4 R/B 1.3 13:17:14 10° E 13:21:08 58° NNE 13:24:59 10° WNW
SL-16 R/B 3.4 13:15:42 11° NNE 13:21:09 35° E 13:26:45 10° SSE
ADEOS 4.0 13:17:09 10° SSE 13:22:23 67° SW 13:27:38 10° NW
Cosmos 2228 2.9 13:18:12 10° NW 13:22:29 78° NE 13:26:48 10° SE
Cosmos 1727 Rocket 4.3 13:16:16 10° S 13:22:31 64° ESE 13:28:28 11° NNE
Meteor 2-4 Rocket 4.0 13:17:22 10° S 13:22:36 54° ESE 13:27:34 11° NE
Cosmos 1544 Rocket 3.8 13:18:52 10° NW 13:23:15 76° SW 13:27:40 10° SSE
Cosmos 2315 Rocket 4.1 13:17:12 10° W 13:23:30 64° N 13:29:44 10° ENE
OBJECT-B 1.2 13:20:55 10° ENE 13:24:04 42° N 13:27:13 10° WNW
H-2A R/B 2.6 13:20:33 10° SE 13:24:15 83° NE 13:27:59 10° NW
Meteor 2-15 Rocket 4.5 13:19:43 10° WNW 13:25:53 66° N 13:32:02 10° E
IRIDIUM 103 4.3 13:21:10 10° NNW 13:26:26 72° ENE 13:31:41 10° SE
Resurs 01 Rocket 1.7 13:22:19 10° ENE 13:26:44 63° NNW 13:31:07 10° W
deb Chang Zheng 4 3.8 13:23:13 10° SE 13:27:32 73° SW 13:31:51 10° NW
Cosmos 1862 Rocket 3.6 13:23:29 10° SSW 13:27:50 75° ESE 13:31:51 12° NE
Okean 1-7 3.3 13:24:21 10° S 13:28:35 58° ESE 13:32:28 12° NE
USA 186 2.0 13:26:20 10° ENE 13:28:47 33° N 13:31:10 10° WNW
Cosmos 2034 Rocket 4.1 13:22:44 10° NW 13:29:06 85° WSW 13:35:24 10° SSE
Nadezhda 1 Rocket 4.0 13:24:18 10° WSW 13:30:24 67° NNW 13:36:29 10° ENE
SJ-6B 3.0 13:26:36 10° ENE 13:30:36 55° N 13:34:39 10° WNW
Cosmos 2221 Rocket 4.3 13:27:18 10° S 13:31:38 43° E 13:35:30 12° NNE
CZ-2C R/B 4.0 13:29:12 10° S 13:32:54 42° WSW 13:36:41 10° NW
Cosmos 1515 3.8 13:29:08 10° SSW 13:32:56 72° ESE 13:36:19 13° NE
Meteor PRIRODA 3.7 13:29:24 10° SE 13:33:05 85° SW 13:36:45 10° NW
Cosmos 1707 4.2 13:31:59 10° SE 13:34:59 22° E 13:37:23 13° NE
H-2A R/B 4.0 13:34:51 12° NE 13:35:28 12° NE 13:37:15 10° ENE
Cosmos 1271 Rocket 3.1 13:31:51 10° SSW 13:35:49 61° SE 13:39:25 12° NE
Cosmos 1606 Rocket 3.5 13:31:41 10° NW 13:36:05 82° NE 13:40:31 10° SE
Meteor 1-10 Rocket 4.4 13:30:41 10° SW 13:36:36 90° NW 13:42:37 10° NE
USA 245 3.0 13:33:48 11° ENE 13:36:37 57° NNW 13:40:19 10° W
S3M 4.0 13:30:30 10° WNW 13:36:39 63° N 13:42:44 10° E
SL-27 R/B 4.0 13:35:13 10° SSW 13:38:14 30° SSE 13:41:20 10° E
H-2A R/B 2.1 13:34:02 10° E 13:39:15 71° NNE 13:44:38 10° WNW
Cosmos 1378 3.9 13:36:09 10° S 13:39:40 40° ESE 13:42:38 13° NE
Cosmos 2221 2.7 13:35:29 10° W 13:39:49 56° N 13:44:11 10° E
Cosmos 1634 Rocket 4.0 13:33:37 10° NW 13:39:53 86° NE 13:46:12 10° SE
CZ-2C R/B 3.4 13:35:13 10° S 13:40:08 51° WSW 13:45:11 10° NNW
ALOS 2.9 13:35:38 10° SSE 13:40:17 60° WSW 13:44:57 10° NW
Terra 1.9 13:36:14 10° NE 13:41:03 78° NNW 13:45:49 10° WSW
IGS 5A 3.6 13:37:43 10° ENE 13:41:49 58° NNW 13:45:55 10° W
Cosmos 2297 Rocket 4.0 13:38:50 10° SSE 13:42:39 19° ESE 13:46:27 10° ENE
Spot 2 4.0 13:39:41 10° SE 13:43:55 85° SW 13:48:02 10° NW
CSL-04 Rocket 3.7 13:38:28 10° E 13:44:01 75° N 13:49:36 10° WNW
Iridium 2 3.8 13:40:50 10° S 13:44:37 64° ESE 13:47:57 13° NNE
IRIDIUM 106 4.3 13:39:32 10° NNW 13:44:49 78° ENE 13:50:04 10° SSE
MetOp-A 4.1 13:39:47 10° E 13:45:08 70° N 13:50:30 10° W
Resurs 1-3 3.7 13:40:49 10° ENE 13:45:10 60° N 13:49:31 10° W
Cosmos 1953 2.8 13:41:44 10° NW 13:45:42 65° WSW 13:49:39 10° SSE
Meteor 1-31 Rocket 3.3 13:43:33 10° SSE 13:47:24 65° WSW 13:51:19 10° NW
CRYOSAT 2 4.4 13:42:38 10° N 13:47:34 77° E 13:52:29 10° S
Cosmos 1869 3.4 13:44:02 10° WNW 13:47:49 53° N 13:51:38 10° E
Cosmos 389 Rocket 2.5 13:44:37 10° WNW 13:48:13 63° N 13:51:48 10° E
Cosmos 2242 Rocket 3.8 13:43:46 10° SSW 13:48:15 70° ESE 13:52:17 13° NE
IRS-1C Rocket 4.1 13:43:33 10° ESE 13:48:51 80° NNE 13:54:09 10° WNW
IDEFIX/ARIANE 42P 4.0 13:44:12 10° SSW 13:49:03 36° W 13:53:56 10° NNW
Cosmos 1455 Rocket 3.7 13:45:02 10° NW 13:49:18 58° WSW 13:53:35 10° SSE
Envisat 3.1 13:45:03 10° SE 13:50:11 84° SW 13:55:19 10° NW
CZ-4B R/B 3.4 13:44:46 10° SE 13:50:29 87° SW 13:56:14 10° NW
Cosmos 1975 Rocket 4.1 13:47:04 10° SE 13:50:46 28° E 13:53:48 13° NNE
Cosmos 1515 Rocket 3.6 13:46:31 10° WSW 13:50:53 65° NNW 13:54:58 12° ENE
SPOT 3 Rocket 3.6 13:45:52 10° ENE 13:51:02 72° N 13:56:14 10° W
Cosmos 1726 3.1 13:48:42 10° NW 13:52:20 48° WSW 13:55:57 10° S
Cosmos 1470 3.9 13:48:56 10° NW 13:52:41 45° WSW 13:56:26 10° S
Meteor 1-4 Rocket 2.7 13:49:31 10° W 13:53:15 64° N 13:57:02 10° ENE
Cosmos 1812 Rocket 3.5 13:49:04 10° WNW 13:53:30 65° NNE 13:57:55 10° ESE
Okean 3 3.8 13:50:22 10° S 13:54:32 55° ESE 13:58:03 14° NE
SL-24 DEB 4.4 13:51:54 10° N 13:56:29 54° E 14:01:05 10° SSE
MOS 1 4.3 13:51:05 10° E 13:56:50 76° N 14:02:33 10° W
CORIOLIS 4.2 13:52:05 10° SE 13:57:30 89° SW 14:02:54 10° NW
Cosmos 2181 Rocket 4.1 13:51:42 10° WSW 13:57:54 72° NNW 14:04:01 11° NE
Cosmos 1674 Rocket 4.2 13:54:27 10° S 13:58:42 43° E 14:02:18 14° NNE
SMAP 3.1 13:54:07 10° SE 13:58:49 89° NE 14:03:31 10° NW
ALOS 2 2.6 13:55:11 13° NE 13:59:07 83° SE 14:03:33 10° SW
Nadezhda 3 Rocket 4.0 13:53:14 10° SW 13:59:26 83° NW 14:05:10 13° NE
Aureole 3 Rocket 2.3 13:57:22 10° NW 14:00:39 55° NNE 14:03:40 10° ESE
YAOGAN 1 2.5 13:56:21 10° ESE 14:00:41 67° NNE 14:05:00 10° WNW
CZ-2C R/B 4.3 13:58:12 10° N 14:00:44 13° NNE 14:01:20 13° NE
Cosmos 1455 2.1 13:57:58 10° NW 14:01:47 72° NE 14:05:37 10° ESE
Cosmos 1606 2.9 13:58:10 10° W 14:01:56 52° N 14:05:44 10° ENE
Cosmos 2228 Rocket 3.2 13:57:52 10° WSW 14:02:23 70° NNW 14:06:29 13° NE
Cosmos 1782 3.0 13:58:35 10° W 14:02:34 58° NNW 14:06:08 12° ENE
CZ-4C R/B 4.5 14:00:05 14° NE 14:02:35 25° E 14:05:46 10° SSE
Meteor 1-18 Rocket 4.3 13:59:51 10° SSW 14:05:26 75° SE 14:10:31 13° NE
Cosmos 1315 Rocket 3.2 14:02:52 10° NW 14:06:49 66° SW 14:10:48 10° SSE
Okean O Rocket 1.6 14:02:26 10° SE 14:06:53 88° NE 14:11:19 10° NW
Cosmos 2263 Rocket 4.1 14:05:28 10° ESE 14:07:25 12° E 14:09:21 10° ENE
Cosmos 1933 3.5 14:04:39 10° W 14:08:38 54° N 14:12:22 11° ENE
Cosmos 1812 2.9 14:05:05 10° WSW 14:08:57 61° NNW 14:12:11 14° NE
Cosmos 1707 Rocket 3.6 14:05:03 10° SW 14:09:31 78° NW 14:13:22 14° NE
CZ-4 R/B 4.4 14:05:24 10° ESE 14:09:34 71° NNE 14:13:45 10° NW
Cosmos 1300 2.8 14:05:59 10° NW 14:09:50 79° SW 14:13:41 10° SSE
Resurs 1-4 Rocket 4.1 14:06:54 10° WSW 14:10:50 21° WNW 14:14:48 10° NNW
COBE Rocket 4.1 14:06:52 13° NE 14:11:30 72° ESE 14:16:38 10° SSW
Cosmos 2123 Rocket 4.2 14:05:30 10° S 14:11:41 61° ESE 14:17:25 12° NNE
MOZ.5/SAFIR/RUBIN 5/SL-8 4.3 14:08:00 14° NE 14:11:55 48° ESE 14:16:32 10° S
USA 290 4.4 14:09:32 10° WSW 14:12:25 29° SSW 14:15:16 10° SE
Spot 2 Rocket 3.5 14:07:36 10° ENE 14:12:40 71° NNW 14:17:44 10° W
FREGAT/IRIS 2.8 14:11:33 19° ENE 14:12:43 30° N 14:14:50 10° WNW
ARGOS 3.1 14:07:29 10° ESE 14:12:53 75° NNE 14:18:19 10° WNW
ADEOS II 3.9 14:08:39 10° SW 14:12:59 25° WNW 14:17:21 10° NNW
Meteor 1-19 Rocket 4.4 14:07:26 10° SW 14:13:03 77° SE 14:18:14 13° NE
Cosmos 2251 Rocket 4.5 14:08:09 10° SW 14:13:11 44° SSE 14:18:14 10° E
CZ-2C R/B 3.3 14:07:36 10° ESE 14:13:21 80° NNE 14:19:14 10° NW
SPOT 1/Viking Rocket 3.6 14:08:28 10° ENE 14:13:37 70° N 14:18:45 10° W
Okean-O 2.6 14:10:08 10° ESE 14:14:36 73° NNE 14:19:03 10° WNW
ERS-1 Rocket 3.0 14:11:34 10° ENE 14:16:32 72° NNW 14:21:36 10° W
Meteor 2-10 Rocket 3.8 14:11:17 10° NW 14:17:00 83° SW 14:22:29 10° SE
Iridium 4 Rocket 4.0 14:11:22 10° NW 14:17:03 47° NNE 14:22:27 10° ESE
NOAA 6 4.3 14:13:10 10° SE 14:18:23 75° SW 14:23:37 10° NW
Landsat 7 3.9 14:13:51 10° ENE 14:18:36 64° N 14:23:20 10° W
Meteor 2-6 Rocket 4.4 14:12:43 10° WSW 14:18:37 79° NNW 14:24:22 11° ENE
ADEOS Rocket 3.8 14:14:05 10° NNE 14:19:45 32° ENE 14:24:57 10° SE
Cosmos 1726 Rocket 3.6 14:16:19 10° NW 14:20:42 85° SW 14:25:06 10° SE
Cosmos 2058 Rocket 3.1 14:16:25 10° NW 14:20:57 87° NE 14:25:29 10° SE
PSLV R/B 4.0 14:17:10 10° SE 14:21:01 75° SW 14:24:59 10° NW
Helios 1A Rocket 2.9 14:16:59 10° ESE 14:21:08 72° NNE 14:25:17 10° WNW
Cosmos 1842 3.9 14:17:38 10° S 14:21:16 39° ESE 14:24:03 16° NE
YAOGAN 6 2.7 14:18:12 10° SE 14:21:53 80° SW 14:25:37 10° NW
H-2A R/B 2.8 14:17:41 10° SE 14:22:03 80° SW 14:26:33 10° NW
Meteor 1-27 Rocket 3.9 14:18:09 10° WSW 14:24:06 85° NNW 14:29:22 13° ENE
Cosmos 1484 Rocket 4.0 14:20:51 10° S 14:24:45 46° WSW 14:28:40 10° NNW
NOAA 11 4.3 14:19:51 10° SE 14:25:24 85° SW 14:30:56 10° NW
CZ-2D R/B 3.1 14:21:48 10° ESE 14:25:38 72° NE 14:29:28 10° NW
Cosmos 1833 Rocket 4.3 14:20:33 10° WSW 14:25:39 36° SSW 14:30:45 10° SE
Meteor 1-13 Rocket 4.4 14:20:31 10° SSW 14:26:03 64° ESE 14:30:54 14° NE
Feng Yun 1-1 Rocket 4.4 14:20:30 10° SE 14:26:11 88° SW 14:32:01 10° NW
YAOGAN 11 4.3 14:24:25 15° NE 14:27:57 62° ESE 14:32:20 10° SSW
Meteor 1-27 4.2 14:23:39 10° WNW 14:29:24 79° NNE 14:35:03 10° ESE
Cosmos 1242 Rocket 2.4 14:26:01 10° WSW 14:29:34 79° NNW 14:32:14 17° ENE
Cosmos 1842 Rocket 3.7 14:25:57 10° WNW 14:30:24 59° NNE 14:34:49 10° E
ARIANE 5 R/B 4.4 14:26:08 10° SW 14:30:35 28° W 14:35:00 10° NNW
Cosmos 1437 Rocket 2.9 14:26:59 10° WSW 14:31:04 71° NNW 14:34:33 14° ENE
Cosmos 1151 Rocket 3.2 14:27:01 10° W 14:31:23 57° N 14:35:13 13° ENE
Cosmos 1939 Rocket 2.8 14:27:34 10° SE 14:31:37 81° NE 14:35:37 10° NW
Meteor 2-1 Rocket 4.3 14:26:52 10° NW 14:32:34 86° SW 14:38:08 10° SE
CZ-4B R/B 3.5 14:29:04 10° SSE 14:32:39 53° WSW 14:36:12 10° NW
Ariane Rocket 3.0 14:28:23 10° E 14:33:28 72° NNE 14:38:35 10° WNW
HJ-1C 3.4 14:32:25 10° ESE 14:35:44 57° NNE 14:39:04 10° NW
Cosmos 1674 3.9 14:32:39 10° SE 14:35:51 25° E 14:37:49 17° NE
Aureole 3 3.1 14:32:18 10° NW 14:36:32 84° NE 14:39:57 10° SE
Cosmos 1626 3.6 14:34:01 10° SE 14:36:48 20° E 14:38:06 17° NE
Spot 4 3.9 14:34:04 15° NE 14:38:08 81° NNW 14:42:58 10° WSW
Cosmos 405 2.9 14:35:03 10° WNW 14:38:38 83° NNE 14:42:12 10° ESE
CZ-2D R/B 4.2 14:35:04 10° WSW 14:38:50 19° WNW 14:42:35 10° NNW
COSMOS 2487 3.8 14:36:00 10° SSW 14:39:04 30° SSE 14:41:54 11° E
Meteor 2-15 4.4 14:32:58 10° WNW 14:39:10 75° NNE 14:45:21 10° ESE
Meteor 1-28 Rocket 4.1 14:37:17 17° NE 14:39:36 31° E 14:43:00 10° SSE
Alouette 2 Rocket 3.9 14:35:41 10° W 14:39:51 83° N 14:45:59 10° E
Okean 1 3.3 14:35:56 10° SW 14:39:57 78° NW 14:42:58 17° NE
Cosmos 1378 Rocket 3.8 14:35:53 10° S 14:40:06 52° ESE 14:43:22 16° NE
FengYun 1-2 T 4.5 14:34:33 10° SE 14:40:14 80° SW 14:45:58 10° NW
Cosmos 1328 Rocket 3.7 14:35:56 10° W 14:40:18 56° N 14:43:54 14° ENE
CSL-04 Debris 4.1 14:34:54 10° ESE 14:40:20 82° NNE 14:45:47 10° WNW
NOAA 12 4.4 14:35:18 10° SE 14:40:35 75° SW 14:45:54 10° NW
Meteor 2-8 Rocket 4.4 14:34:42 10° NW 14:40:49 79° NE 14:46:58 10° ESE
Cosmos 2082 Rocket 3.7 14:35:42 10° WSW 14:40:56 38° S 14:46:10 10° ESE
Cosmos 1908 4.3 14:37:40 10° NW 14:41:25 48° WSW 14:45:10 10° S
CARTOSAT-1 3.7 14:38:50 14° ENE 14:42:32 59° N 14:46:48 10° W
Tsikada Rocket 4.5 14:37:25 10° SSE 14:43:08 40° E 14:48:49 10° NNE
ARIANE 5 R/B 2.7 14:39:45 12° ENE 14:43:42 62° N 14:48:05 10° W
Helios 1A 3.1 14:42:36 17° NE 14:45:51 70° SE 14:50:02 10° SSW
Cosmos 1703 Rocket 3.6 14:42:28 10° SW 14:46:56 90° NNW 14:50:26 17° NE
USA 281 3.8 14:40:41 10° E 14:47:09 57° S 14:53:38 10° WSW
Cosmos 1025 Rocket 3.9 14:43:17 10° SSE 14:47:13 33° E 14:50:06 16° NE
AQUARIUS 4.4 14:43:03 10° SE 14:47:35 76° SW 14:52:08 10° NW
Cosmos 1140 Rocket 4.4 14:42:51 10° SW 14:47:46 41° SSE 14:52:24 11° E
Cosmos 1400 Rocket 4.4 14:44:05 10° NW 14:47:58 40° WSW 14:51:49 10° S
Cosmos 1437 2.4 14:45:31 10° SW 14:48:28 85° SE 14:50:17 21° NE
Okean 2 3.8 14:44:34 10° S 14:48:35 47° ESE 14:51:33 17° NE
UNK 4.1 14:47:16 16° NE 14:50:48 51° ESE 14:55:19 10° S
COSMO-SKYMED 1 4.3 14:51:44 15° ENE 14:51:44 15° ENE 14:53:33 10° E
SL-08 RB Rocket 3.6 14:46:58 10° ESE 14:51:26 70° NNE 14:55:55 10° NW
SJ-11-01 4.2 14:47:16 10° ESE 14:51:58 78° NNE 14:56:41 10° NW
IRS-1A Rocket 4.3 14:46:48 10° E 14:52:41 80° NNE 14:58:29 10° WNW
Cosmos 1417 Rocket 4.4 14:47:36 10° NW 14:53:47 71° NNE 15:00:02 10° ESE
Meteor 2-2 Rocket 4.3 14:48:15 10° WNW 14:54:07 77° NNE 15:00:06 10° ESE
OBJECT-B 1.1 14:53:07 12° E 14:56:04 47° NNE 14:59:16 10° NW
CZ-4 R/B 1.2 14:52:07 10° ESE 14:56:06 79° NE 15:00:02 10° NW
SPOT 5 3.1 14:51:34 13° ENE 14:56:21 68° N 15:01:32 10° W
Cosmos 1553 Rocket 4.0 14:50:49 10° NW 14:57:17 74° NNE 15:03:44 10° ESE
Cosmos-2242 2.9 14:54:18 10° NW 14:58:36 73° NE 15:02:54 10° ESE
H-2A R/B 3.5 14:55:02 10° SSE 14:58:40 53° WSW 15:02:19 10° NW
USA 186 1.6 14:57:34 16° E 14:59:27 42° NNE 15:01:57 10° NW
Cosmos 1536 Rocket 4.4 14:55:50 10° SSE 14:59:49 32° E 15:02:38 17° NE
MetOp-B 4.1 14:54:42 10° E 15:00:04 72° N 15:05:26 10° WNW
Cosmos 2228 3.5 14:55:51 10° NW 15:00:05 63° WSW 15:04:20 10° SSE
Meteor 1-26 Rocket 4.2 14:57:00 10° W 15:02:26 72° N 15:07:35 12° E
Cosmos 2227 Rocket 3.6 14:57:59 10° S 15:02:32 25° SE 15:06:31 12° E
Resurs 01 Rocket 1.7 14:58:41 10° E 15:03:04 62° N 15:07:27 10° WNW
Cosmos 2279 Rocket 4.2 14:57:33 10° NW 15:03:51 78° WSW 15:10:08 10° SSE
SJ-6B 2.9 15:01:01 10° ESE 15:05:03 62° NNE 15:09:08 10° WNW
Meteor 2-4 Rocket 3.6 15:00:01 10° SW 15:05:27 84° SE 15:09:39 17° NE
Cosmos 1862 Rocket 3.6 15:01:30 10° WSW 15:05:52 70° NNW 15:09:00 19° NE
SL-16 R/B 2.8 15:00:47 15° NE 15:05:55 56° ESE 15:12:00 10° SSW
Okean 1-7 3.0 15:01:48 10° SW 15:06:08 83° NW 15:09:19 18° NE
Meteor 2-5 Rocket 4.5 15:02:03 10° SE 15:06:52 31° E 15:10:50 14° NNE
Cosmos 1727 Rocket 4.1 15:01:36 10° SW 15:07:58 86° NW 15:13:12 16° NE
Cosmos 1515 3.8 15:04:52 10° WSW 15:08:40 68° NNW 15:11:13 20° NE
Cosmos 2221 Rocket 3.7 15:05:01 10° SSW 15:09:34 78° SE 15:12:59 18° NE
Cosmos 2315 Rocket 4.0 15:03:28 10° WNW 15:09:47 68° NNE 15:16:03 10° ESE
Cosmos 1707 3.2 15:06:32 10° S 15:10:12 42° ESE 15:12:32 19° NE
MINOTAUR 4 R/B 4.2 15:08:04 20° NE 15:10:24 59° ESE 15:13:58 10° SSW
Meteor 2-15 Rocket 4.4 15:05:04 10° NW 15:11:17 79° NE 15:17:29 10° ESE
Cosmos 1271 Rocket 2.8 15:07:46 10° WSW 15:11:50 83° NNW 15:14:32 20° NE
SL-27 R/B 3.5 15:09:35 10° WSW 15:12:50 39° S 15:15:51 12° ESE
USA 245 3.1 15:11:11 22° ENE 15:12:53 50° N 15:16:23 10° WNW
H-2A R/B 3.4 15:11:55 18° NE 15:13:08 20° ENE 15:16:29 10° SE
Cosmos 1606 Rocket 4.2 15:09:37 10° NW 15:13:56 60° WSW 15:18:18 10° SSE
Cosmos 1378 3.1 15:11:01 10° SW 15:14:45 79° SE 15:17:14 20° NE
Meteor 2-20 4.5 15:09:23 10° SW 15:15:33 88° SE 15:20:32 16° NE
Nadezhda 1 Rocket 4.0 15:10:22 10° WNW 15:16:26 62° N 15:21:54 13° E
Meteor 1-24 Rocket 4.4 15:12:05 10° SE 15:16:39 30° E 15:20:13 15° NNE
CZ-4C R/B 4.5 15:13:41 10° SSE 15:16:45 14° SE 15:20:06 10° ESE
IGS 5A 3.6 15:13:43 15° E 15:17:05 57° N 15:21:11 10° WNW
Cosmos 2221 2.5 15:13:29 10° WNW 15:17:53 64° NNE 15:22:17 10° ESE
Cosmos 883 Rocket 4.5 15:11:43 10° WNW 15:18:01 70° NNE 15:24:16 10° ESE
SL-08 R/B 3.9 15:15:06 17° NE 15:18:08 36° E 15:22:27 10° SSE
ALOS 4.0 15:14:12 10° SSW 15:18:28 34° W 15:22:45 10° NNW
H-2A R/B 2.1 15:13:28 10° SE 15:18:43 89° NE 15:24:07 10° NW
Terra 1.9 15:15:03 17° ENE 15:18:44 65° N 15:23:28 10° W
CZ-2C R/B 4.4 15:14:57 10° SW 15:19:23 30° W 15:23:54 10° NNW
Iridium 2 4.0 15:16:09 10° SW 15:19:58 65° NW 15:22:49 17° NNE
Meteor 1-10 Rocket 4.4 15:14:26 10° W 15:20:22 75° N 15:25:13 16° ENE
Resurs 1-3 3.6 15:16:59 10° E 15:21:21 66° NNE 15:25:45 10° WNW
Cosmos 1953 4.1 15:18:07 10° NNW 15:21:44 33° W 15:25:20 10° SSW
DELTA 2 DEB (DPAF) 4.4 15:18:47 18° NE 15:21:56 52° ESE 15:26:19 10° SSW
S3M 3.9 15:16:30 10° NW 15:22:41 74° NNE 15:28:50 10° ESE
Cosmos 389 Rocket 2.4 15:19:31 10° WNW 15:23:09 81° NNE 15:26:44 10° ESE
CSL-04 Rocket 3.8 15:18:51 10° SE 15:24:25 89° SW 15:30:02 10° NW
Cosmos 1869 3.1 15:20:37 10° NW 15:24:28 69° NNE 15:28:22 10° ESE
MetOp-A 4.1 15:19:50 10° ESE 15:25:13 80° NNE 15:30:37 10° WNW
Cosmos 2297 Rocket 3.5 15:20:31 10° SSW 15:25:15 28° SE 15:29:09 14° E
Cosmos 2242 Rocket 3.7 15:22:03 10° WSW 15:26:35 75° NW 15:29:46 20° NE
Cosmos 1726 4.5 15:23:53 10° NNW 15:26:58 24° W 15:30:03 10° SW
Cosmos 1975 Rocket 3.3 15:23:49 10° S 15:28:02 52° ESE 15:30:57 19° NE
Meteor 1-4 Rocket 2.6 15:24:49 10° WNW 15:28:36 68° NNE 15:31:43 15° E
IRS-1C Rocket 4.3 15:23:28 10° SE 15:28:45 76° SW 15:34:04 10° NW
Cosmos 1515 Rocket 3.8 15:24:54 10° W 15:29:14 55° N 15:32:07 20° ENE
Envisat 3.9 15:24:42 10° S 15:29:41 52° WSW 15:34:42 10° NNW
SPOT 3 Rocket 3.5 15:25:13 10° E 15:30:24 75° NNE 15:35:36 10° WNW
CZ-4B R/B 3.9 15:25:50 10° SSE 15:31:29 61° WSW 15:37:07 10° NW
Cosmos 1812 Rocket 3.6 15:27:10 10° NW 15:31:38 86° SW 15:36:03 10° SE
Okean 3 3.4 15:27:27 10° SW 15:31:44 85° NW 15:34:34 20° NE
Cosmos 1066 Rocket 4.1 15:26:57 10° SW 15:32:23 77° SE 15:36:22 19° NE
SL-24 DEB 4.3 15:30:13 10° NNE 15:34:53 82° WNW 15:39:35 10° SSW
SeaSat 1 4.1 15:34:11 14° E 15:35:26 16° ESE 15:38:23 10° SE
ALOS 2 2.7 15:32:34 20° NE 15:35:31 69° NNW 15:39:55 10° WSW
Cosmos 1674 Rocket 3.6 15:31:47 10° SSW 15:36:16 77° SE 15:39:24 20° NE
Cosmos 407 Rocket 4.2 15:31:22 10° SW 15:36:25 47° SSE 15:40:34 15° E
SMAP 3.8 15:31:53 10° SSE 15:36:30 57° WSW 15:41:08 10° NW
YAOGAN 1 2.6 15:32:27 10° SE 15:36:50 86° SW 15:41:13 10° NW
Cosmos 1455 2.6 15:33:40 10° NW 15:37:28 67° WSW 15:41:17 10° SSE
CZ-4C R/B 3.5 15:35:46 22° NE 15:38:04 49° ESE 15:41:42 10° S
Cosmos 1606 2.8 15:34:19 10° WNW 15:38:07 57° NNE 15:40:50 18° E
SJ 16-02 3.5 15:36:38 10° ESE 15:36:51 10° ESE 15:36:51 10° ESE
MOS 1 4.3 15:32:28 10° ESE 15:38:14 85° NNE 15:43:59 10° WNW
KORONAS-FOTON 4.4 15:34:46 10° S 15:38:28 39° ESE 15:40:29 22° NE
Cosmos 1782 3.0 15:35:25 10° WNW 15:39:21 53° N 15:41:44 22° ENE
Cosmos 2228 Rocket 3.4 15:36:35 10° W 15:41:05 57° N 15:43:57 21° ENE
Meteor 1-21 4.4 15:36:04 10° SSW 15:41:40 61° ESE 15:45:53 18° NE
FREGAT/IRIS 2.3 15:41:31 41° NE 15:41:42 42° NNE 15:43:56 10° NW
CZ-2C R/B 4.0 15:39:26 10° NNE 15:50:19 - ESE 15:42:53 19° NE
Okean O Rocket 2.4 15:39:11 10° SSE 15:43:34 56° WSW 15:47:55 10° NW
Cosmos 2181 Rocket 4.1 15:37:57 10° W 15:44:08 63° N 15:48:51 18° ENE
Cosmos 1812 3.0 15:41:21 10° W 15:45:11 52° N 15:47:15 24° ENE
Cosmos 1300 4.1 15:41:38 10° NW 15:45:16 41° WSW 15:48:53 10° S
Nadezhda 3 Rocket 4.1 15:39:15 10° W 15:45:23 66° NNW 15:49:53 19° ENE
Cosmos 1933 3.5 15:41:41 10° WNW 15:45:40 56° NNE 15:48:11 21° E
Meteor 1-23 Rocket 4.3 15:41:28 10° SW 15:47:15 80° SE 15:51:26 19° NE
Cosmos 1707 Rocket 3.8 15:43:21 10° W 15:47:46 59° NNW 15:50:30 22° ENE
Aureole 3 Rocket 2.3 15:45:04 10° NW 15:48:18 80° SW 15:51:21 10° SE
Meteor 1-18 Rocket 4.2 15:43:22 10° WSW 15:48:59 81° NNW 15:53:00 20° ENE
Cosmos 2263 Rocket 3.7 15:45:27 10° SSE 15:49:27 20° ESE 15:51:35 17° E
MOZ.5/SAFIR/RUBIN 5/SL-8 3.8 15:46:39 20° NE 15:49:57 81° SE 15:54:43 10° SW
COBE Rocket 4.1 15:46:21 19° NE 15:50:08 76° NW 15:55:16 10° WSW
Okean-O 2.8 15:46:43 10° SE 15:51:11 78° SW 15:55:40 10° NW
Spot 2 Rocket 3.5 15:47:30 16° E 15:51:33 71° NNE 15:56:38 10° WNW
In-Cosmos 22 4.3 15:47:24 10° S 15:52:33 52° ESE 15:56:15 19° NE
Resurs 1-4 Rocket 4.4 15:50:15 10° WNW 15:52:45 13° NW 15:55:17 10° NNW
SPOT 1/Viking Rocket 3.5 15:48:43 15° E 15:52:57 71° NNE 15:58:06 10° WNW
ARGOS 3.2 15:47:50 10° SE 15:53:16 84° SW 15:58:44 10° NW
CZ-2C R/B 3.6 15:47:40 10° SSE 15:53:25 75° SW 15:59:18 10° NW
ADEOS II 4.4 15:51:24 10° W 15:54:33 16° NW 15:57:42 10° NNW
Cosmos 2251 Rocket 4.2 15:49:48 10° WSW 15:54:56 51° S 15:59:35 13° ESE
ERS-1 Rocket 3.0 15:51:33 18° E 15:55:16 69° N 16:00:18 10° WNW
YAOGAN 6 4.1 15:52:15 10° S 15:55:45 41° WSW 15:59:17 10° NNW
Landsat 7 3.8 15:52:23 16° E 15:56:13 68° NNE 16:01:00 10° WNW
Helios 1A Rocket 3.1 15:52:12 10° SE 15:56:23 78° SW 16:00:33 10° NW
Meteor 1-19 Rocket 4.3 15:50:51 10° WSW 15:56:33 80° NNW 16:00:37 21° ENE
Cosmos 1842 3.2 15:53:06 10° SSW 15:57:01 76° SE 15:59:19 24° NE
Cosmos 2123 Rocket 4.0 15:50:42 10° SW 15:57:02 89° NW 16:02:07 17° NE
Iridium 4 Rocket 3.7 15:51:57 10° NNW 15:57:49 68° ENE 16:03:19 10° SE
H-2A R/B 3.8 15:53:46 10° S 15:57:57 46° WSW 16:02:17 10° NW
Cosmos 2058 Rocket 3.9 15:54:28 10° NW 15:58:53 55° WSW 16:03:18 10° S
Meteor 2-20 Rocket 4.5 15:52:55 10° SW 15:59:05 85° NW 16:03:44 19° NE
CZ-2D R/B 3.6 15:56:17 10° SSE 16:00:07 67° WSW 16:03:58 10° NW
Meteor 2-6 Rocket 4.4 15:56:18 10° W 16:02:13 73° N 16:06:36 19° E
Cosmos 1242 Rocket 2.6 16:01:09 10° W 16:04:40 62° N 16:06:13 30° ENE
YAOGAN 11 4.1 16:02:01 23° NE 16:04:42 83° NW 16:09:07 10° WSW
ADEOS Rocket 3.2 16:00:59 13° NNE 16:06:40 51° ESE 16:12:22 10° S
Cosmos 1939 Rocket 3.5 16:02:46 10° SSE 16:06:47 58° WSW 16:10:45 10° NW
Cosmos 1437 Rocket 2.9 16:03:34 10° WNW 16:07:38 67° N 16:09:57 25° E
Meteor 1-27 Rocket 3.9 16:01:55 10° W 16:07:51 73° N 16:11:47 22° ENE
HJ-1C 3.4 16:04:50 10° SE 16:08:13 86° SW 16:11:38 10° NW
Cosmos 1842 Rocket 3.5 16:04:11 10° NW 16:08:41 78° NE 16:13:09 10° SE
Meteor 1-13 Rocket 4.2 16:03:47 10° SW 16:09:25 87° NW 16:13:21 21° NE
Cosmos 1151 Rocket 3.2 16:05:05 10° WNW 16:09:27 59° NNE 16:12:04 23° E
Cosmos 1092 Rocket 4.5 16:05:03 10° SE 16:10:30 34° ENE 16:15:57 10° NNE
Cosmos 1674 2.9 16:07:06 10° S 16:10:49 50° ESE 16:12:38 27° NE
Cosmos 1626 2.6 16:07:53 10° S 16:11:22 39° ESE 16:12:38 29° ENE
Ariane Rocket 3.0 16:07:21 10° ESE 16:12:29 89° NE 16:17:38 10° NW
Meteor 1-27 4.4 16:07:07 10° NW 16:12:50 79° SW 16:18:27 10° SE
Cosmos 405 3.7 16:09:43 10° NW 16:13:13 57° WSW 16:16:44 10° SSE
COSMOS 2487 3.4 16:10:17 10° WSW 16:13:31 39° S 16:15:18 22° ESE
Meteor 1-28 Rocket 3.2 16:12:14 26° NE 16:14:12 62° ESE 16:17:56 10° SSW
Spot 4 4.0 16:13:11 24° ENE 16:16:05 67° N 16:20:52 10° W
Okean 1 3.6 16:12:42 10° W 16:16:40 56° NNW 16:18:37 27° NE
Cosmos 1378 Rocket 3.5 16:13:25 10° SW 16:17:46 90° NW 16:20:24 24° NE
Aureole 3 4.1 16:14:18 10° NW 16:18:15 50° WSW 16:21:32 10° S
CARTOSAT-1 3.6 16:15:57 24° E 16:18:26 62° NNE 16:22:43 10° WNW
Cosmos 1328 Rocket 3.6 16:14:13 10° WNW 16:18:35 60° NNE 16:20:58 25° E
Cosmos 1816 Rocket 4.5 16:13:47 10° S 16:19:53 65° ESE 16:25:26 13° NNE
ARIANE 5 R/B 2.6 16:17:17 22° E 16:20:03 68° NNE 16:24:27 10° WNW
CSL-04 Debris 4.4 16:15:35 10° SE 16:21:00 73° SW 16:26:27 10° NW
CZ-2D R/B 4.5 16:18:54 10° WNW 16:21:08 12° NW 16:23:21 10° N
Nadezhda 4 Rocket 4.3 16:15:30 10° SSE 16:21:13 41° E 16:26:54 10° NNE
Cosmos 1437 2.6 16:18:18 10° W 16:21:13 62° NNW 16:22:03 40° NE
SL-14 R/B 3.7 16:17:37 10° S 16:21:22 41° ESE 16:22:57 28° NE
Helios 1A 3.0 16:19:12 25° NE 16:21:33 76° NNW 16:25:45 10° WSW
Cosmos 2082 Rocket 4.0 16:19:03 10° W 16:24:03 31° SSW 16:29:02 10° SSE
Cosmos 1025 Rocket 3.1 16:20:02 10° SSW 16:24:22 60° ESE 16:26:59 23° NE
GP-B 4.4 16:23:39 21° NE 16:24:33 23° NNE 16:28:02 10° NNW
Cosmos 1703 Rocket 3.8 16:20:41 10° WSW 16:25:07 63° NNW 16:27:36 26° NE
Okean 2 3.3 16:21:03 10° SW 16:25:15 86° SE 16:27:39 25° NE
Cosmos 1626 Rocket 4.4 16:21:57 10° SE 16:25:46 28° E 16:26:16 27° ENE
CZ-4C R/B 4.1 16:27:03 24° ESE 16:27:03 24° ESE 16:29:04 10° SSE
Tsikada Rocket 4.0 16:21:57 10° S 16:28:06 65° ESE 16:33:51 12° NNE
OBJECT-B 0.7 16:26:13 22° ESE 16:28:12 73° NE 16:31:31 10° NW
UNK 3.7 16:25:35 23° NE 16:28:27 85° SE 16:33:05 10° SW
COSMO-SKYMED 1 3.6 16:28:56 26° E 16:28:56 26° E 16:32:17 10° SE
SL-08 RB Rocket 3.7 16:24:04 10° SE 16:28:35 81° SW 16:33:06 10° NW
Cosmos 1140 Rocket 4.1 16:23:56 10° WSW 16:29:00 50° S 16:32:24 20° ESE
USA 186 1.1 16:29:15 33° SE 16:30:17 81° NE 16:32:55 10° NW
CZ-4 R/B 1.9 16:27:23 10° SSE 16:31:21 61° WSW 16:35:15 10° NW
USA 281 3.8 16:26:05 10° ESE 16:32:32 56° SSW 16:39:00 10° W
SPOT 5 3.1 16:30:48 22° E 16:34:18 71° NNE 16:39:31 10° WNW
IRS-1A Rocket 4.4 16:28:24 10° SE 16:34:20 83° SW 16:40:10 10° NW
COSMOS 2455 4.5 16:32:03 10° SSE 16:35:28 16° ESE 16:36:16 15° ESE
Cosmos-2242 3.3 16:32:00 10° NW 16:36:16 69° WSW 16:40:32 10° SSE
Cosmos 1536 Rocket 3.6 16:32:47 10° SSW 16:37:11 59° ESE 16:39:47 24° NE
Meteor 2-2 Rocket 4.4 16:32:17 10° NW 16:38:10 83° SW 16:44:09 10° SE
Alouette 2 Rocket 4.2 16:34:35 10° WNW 16:38:58 79° SW 16:45:33 10° SE
Resurs 01 Rocket 1.5 16:36:15 18° ESE 16:39:30 79° NNE 16:43:57 10° NW
SJ-6B 2.8 16:35:36 10° SE 16:39:40 90° SW 16:43:49 10° NW
Cosmos 2219 4.2 16:34:52 10° SW 16:39:59 35° SSE 16:43:03 20° ESE
MetOp-B 4.1 16:35:49 16° ESE 16:40:09 83° NNE 16:45:34 10° WNW
Landsat 5 3.9 16:40:09 32° ENE 16:40:53 35° ESE 16:44:31 10° S
Cosmos 1844 Rocket 4.2 16:37:58 10° SSE 16:41:21 18° ESE 16:41:21 18° ESE
Cosmos 1553 Rocket 4.2 16:36:29 10° NW 16:42:57 81° WSW 16:49:23 10° SSE
Okean 1-7 Rocket 4.1 16:39:09 10° SSE 16:43:23 37° E 16:45:15 26° NE
MINOTAUR 4 R/B 4.1 16:42:19 32° NE 16:43:53 79° NW 16:47:29 10° WSW
Okean 1-7 3.3 16:39:46 10° W 16:44:03 60° NNW 16:46:10 28° NE
Cosmos 1862 Rocket 3.8 16:39:53 10° W 16:44:11 56° N 16:46:09 30° ENE
Cosmos 1515 4.1 16:40:56 10° W 16:44:41 52° N 16:46:07 32° NE
Cosmos 2227 Rocket 3.2 16:40:22 10° SW 16:45:27 34° SSE 16:48:20 21° ESE
Cosmos 1707 2.6 16:42:01 10° SW 16:45:52 82° SE 16:47:41 30° NE
Meteor 1-26 Rocket 4.1 16:40:41 10° WNW 16:46:08 80° NNE 16:49:59 21° ESE
SL-27 R/B 3.5 16:44:15 10° W 16:47:30 38° SSW 16:49:23 21° SE
Cosmos 2221 Rocket 3.8 16:43:23 10° WSW 16:47:58 70° NNW 16:50:27 26° NE
Cosmos 1271 Rocket 2.9 16:44:04 10° W 16:48:05 66° N 16:49:40 34° ENE
Meteor 2-4 Rocket 3.6 16:43:17 10° WSW 16:48:41 75° NNW 16:51:44 27° ENE
USA 245 2.7 16:48:34 49° E 16:49:09 64° NNE 16:52:36 10° NW
Meteor 2-5 Rocket 3.8 16:44:08 10° S 16:49:30 53° ESE 16:53:19 19° NE
SL-16 R/B 2.5 16:45:52 22° NE 16:50:08 81° SE 16:56:21 10° SW
Cosmos 1378 3.4 16:46:32 10° WSW 16:50:15 63° NNW 16:51:50 32° NE
H-2A R/B 2.7 16:49:00 30° ENE 16:50:17 36° E 16:54:23 10° SSE
Cosmos 968 Rocket 4.3 16:46:16 10° SSW 16:50:54 35° SE 16:52:44 27° E
IGS 5A 3.4 16:50:09 26° ESE 16:52:25 73° NE 16:56:36 10° NW
Cosmos 1727 Rocket 4.2 16:47:34 10° WSW 16:53:55 67° NNW 16:57:56 24° ENE
ATLAS 5 CENTAUR R/B 4.1 16:54:26 10° SSE 16:55:36 11° SSE 16:56:33 10° SE
Cosmos 2221 2.5 16:51:17 10° NW 16:55:42 87° SW 17:00:04 10° SE
Cosmos 2315 Rocket 4.0 16:49:29 10° NW 16:55:50 87° NE 17:02:07 10° SE
Terra 1.8 16:53:56 29° E 16:56:22 69° NNE 17:01:08 10° WNW
SL-08 R/B 3.3 16:54:04 26° NE 16:56:39 63° ESE 17:01:19 10° SSW
Cosmos 2026 Rocket 4.3 16:51:13 10° SSE 16:56:58 41° E 17:02:49 10° NNE
Resurs 1-3 3.6 16:54:05 15° SE 16:57:42 90° S 17:02:09 10° NW
Cosmos 389 Rocket 3.0 16:54:15 10° NW 16:57:49 59° SW 17:01:20 10° SSE
MOS 1 Rocket 3.9 16:58:38 29° ESE 16:58:38 29° ESE 17:01:45 10° SSE
H-2A R/B 2.7 16:53:22 10° SSE 16:58:32 60° WSW 17:03:51 10° NW
DELTA 2 DEB (DPAF) 4.1 16:56:24 27° NE 16:58:51 87° SE 17:03:20 10° SW
Meteor 1-24 Rocket 3.7 16:53:50 10° S 16:58:58 51° ESE 17:02:25 21° NE
Cosmos 1869 3.4 16:57:00 10° NW 17:00:51 71° SW 17:04:44 10° SSE
RESURS DK-1 4.1 16:58:53 10° S 17:01:43 18° SE 17:02:09 18° SE
Nadezhda 1 Rocket 3.9 16:56:18 10° NW 17:02:25 73° NNE 17:06:32 22° ESE
CZ-4C R/B 4.2 16:58:58 10° SSW 17:03:07 19° SSE 17:06:32 14° SE
Cosmos 883 Rocket 4.5 16:57:25 10° NW 17:03:45 88° SW 17:10:00 10° SE
Meteor 1-4 Rocket 2.6 17:00:00 10° NW 17:03:47 83° SW 17:05:53 25° SE
Meteor 1-10 Rocket 4.3 16:58:18 10° WNW 17:04:15 76° NNE 17:07:43 27° E
CSL-04 Rocket 4.2 16:59:39 10° SSE 17:05:08 62° WSW 17:10:42 10° NW
Cosmos 2242 Rocket 3.9 17:00:45 10° W 17:05:14 58° N 17:07:15 31° ENE
MetOp-A 4.3 17:00:09 10° SE 17:05:33 75° SW 17:10:58 10° NW
Cosmos 1975 Rocket 3.0 17:01:27 10° SW 17:05:49 89° NW 17:08:06 28° NE
Cosmos 1515 Rocket 3.6 17:03:13 10° WNW 17:07:36 63° NNE 17:09:15 36° E
Cosmos 1602 Rocket 4.3 17:04:14 10° SSE 17:07:41 32° ESE 17:07:41 32° ESE
Cosmos 2297 Rocket 3.1 17:03:08 10° SW 17:08:15 36° SSE 17:10:58 23° ESE
S3M 4.1 17:02:12 10° NW 17:08:22 79° WSW 17:14:30 10° SSE
IRAS Rocket 4.3 17:05:25 24° NE 17:08:51 58° ESE 17:14:22 10° SSW
Okean 3 3.8 17:05:05 10° W 17:09:17 59° NNW 17:11:05 31° NE
SPOT 3 Rocket 3.6 17:05:31 15° SE 17:09:54 85° SW 17:15:08 10° NW
FREGAT/IRIS 2.8 17:11:30 43° NW 17:11:30 43° NW 17:13:13 10° NW
ALOS 2 2.8 17:09:57 34° ENE 17:11:43 60° N 17:16:04 10° W
Cosmos 1455 4.0 17:09:17 10° NNW 17:12:44 33° W 17:16:13 10° SSW
CZ-4C R/B 3.2 17:11:28 34° NE 17:13:05 89° SE 17:16:50 10° SW
YAOGAN 1 3.5 17:09:04 10° S 17:13:19 50° WSW 17:17:34 10° NW
KORONAS-FOTON 3.7 17:10:04 10° SSW 17:14:00 76° SE 17:15:33 35° NE
Cosmos 1606 2.6 17:10:16 10° NW 17:14:08 83° NE 17:15:51 32° SE
Cosmos 1674 Rocket 3.8 17:09:47 10° WSW 17:14:16 70° NNW 17:16:30 29° NE
SeaSat 1 3.6 17:13:57 24° ESE 17:14:32 25° SE 17:18:36 10° S
Cosmos 1892 Rocket 3.7 17:10:51 10° S 17:15:02 49° ESE 17:16:36 33° NE
SJ 16-02 3.1 17:12:02 10° SSE 17:13:51 18° SE 17:13:51 18° SE
Cosmos 1066 Rocket 4.1 17:09:57 10° WSW 17:15:24 78° NNW 17:18:18 29° ENE
Cosmos 1782 2.8 17:12:06 10° NW 17:16:06 67° NNE 17:17:20 41° E
SKYMED 2 4.2 17:17:31 34° ESE 17:17:31 34° ESE 17:21:12 10° SSE
Cosmos 407 Rocket 4.1 17:12:49 10° W 17:17:56 50° S 17:20:46 25° ESE
Cosmos 2228 Rocket 3.3 17:15:17 10° WNW 17:19:49 62° NNE 17:21:27 37° E
Okean O Rocket 3.6 17:16:43 10° SSW 17:20:41 31° W 17:24:38 10° NNW
Cosmos 1812 2.8 17:17:33 10° WNW 17:21:25 59° NNE 17:22:20 45° ENE
Cosmos 1933 3.2 17:18:31 10° NW 17:22:34 77° NE 17:24:01 38° ESE
Cosmos 1655 Rocket 4.5 17:17:48 10° SE 17:23:22 36° ENE 17:28:57 10° NNE
Meteor 1-21 4.2 17:19:09 10° SW 17:24:52 89° SE 17:28:13 26° NE
CZ-2C R/B 3.5 17:20:28 10° NNE 17:31:47 - SSE 17:24:27 29° ENE
Cosmos 1707 Rocket 3.8 17:21:45 10° WNW 17:26:10 58° N 17:27:39 38° ENE
MOZ.5/SAFIR/RUBIN 5/SL-8 3.9 17:25:18 30° NE 17:27:36 72° NNW 17:32:20 10° WSW
Okean-O 3.8 17:23:52 10° S 17:28:09 45° WSW 17:32:27 10° NW
COBE Rocket 4.3 17:25:49 28° ENE 17:28:27 61° NNW 17:33:31 10° W
Cosmos 2346 Rocket 4.4 17:23:59 10° SW 17:30:07 90° SW 17:35:03 17° NE
IKONOS-2 4.5 17:28:28 33° NE 17:30:22 88° NW 17:34:39 10° SW
Cosmos 2181 Rocket 4.0 17:24:10 10° WNW 17:30:23 69° NNE 17:33:42 30° E
Spot 2 Rocket 3.4 17:27:41 27° SE 17:30:35 88° NNE 17:35:41 10° NW
Meteor 1-23 Rocket 4.3 17:24:51 10° WSW 17:30:39 78° NNW 17:33:42 29° ENE
Nadezhda 3 Rocket 4.1 17:25:25 10° WNW 17:31:34 64° N 17:34:37 31° E
Helios 1A Rocket 4.2 17:27:59 10° S 17:31:59 44° WSW 17:35:59 10° NW
Cosmos 2263 Rocket 3.1 17:27:12 10° SSW 17:32:02 30° SE 17:33:16 27° ESE
SPOT 1/Viking Rocket 3.5 17:29:19 25° SE 17:32:24 89° NNE 17:37:36 10° NW
Meteor 1-18 Rocket 4.3 17:27:12 10° W 17:32:49 73° N 17:35:29 33° ENE
Cosmos 1842 3.5 17:29:16 10° WSW 17:33:09 66° NNW 17:34:37 36° NE
CZ-2C R/B 4.4 17:28:26 10° S 17:33:57 47° W 17:39:37 10° NNW
Landsat 7 3.8 17:31:15 26° SE 17:34:01 90° WSW 17:38:50 10° NW
ERS-1 Rocket 2.9 17:31:32 31° ESE 17:34:02 82° NNE 17:39:07 10° NW
ARGOS 3.9 17:28:44 10° S 17:34:02 55° WSW 17:39:22 10° NNW
In-Cosmos 22 4.0 17:29:33 10° SW 17:34:53 83° SE 17:37:50 27° NE
Aureole 3 Rocket 4.1 17:32:35 10° NW 17:35:29 32° WSW 17:38:16 10° SSW
ATLAS 2AS CENTAUR R/B 4.3 17:30:25 10° SW 17:36:25 25° S 17:40:11 17° SE
Cosmos 2251 Rocket 4.4 17:31:39 10° W 17:36:42 46° SSW 17:40:04 20° SE
Iridium 4 Rocket 3.9 17:32:11 10° NNW 17:38:03 77° W 17:43:32 10° S
Cosmos 1242 Rocket 2.4 17:36:16 10° WNW 17:39:48 69° NNE 17:40:12 61° ENE
Meteor 1-19 Rocket 4.3 17:34:34 10° W 17:40:17 74° N 17:42:59 33° E
YAOGAN 11 4.3 17:39:36 37° ENE 17:41:11 65° NNW 17:45:32 10° W
SL-19 R/B 4.3 17:38:12 28° ENE 17:41:12 64° SE 17:46:51 10° SSW
Meteor 2-13 Rocket 4.5 17:35:27 10° S 17:41:29 58° ESE 17:47:32 10° NNE
Cosmos 2123 Rocket 4.2 17:36:35 10° WSW 17:42:54 69° NNW 17:46:48 25° NE
Cosmos 1437 Rocket 2.8 17:40:03 10° WNW 17:44:10 85° NNE 17:45:20 46° ESE
Meteor 2-6 Rocket 4.3 17:39:49 10° WNW 17:45:46 83° NNE 17:48:49 31° ESE
Cosmos 1674 2.6 17:42:22 10° SW 17:46:15 88° NW 17:47:26 43° NE
Cosmos 1626 2.0 17:42:39 10° SSW 17:46:23 79° SE 17:47:10 53° NE
Cosmos 1842 Rocket 3.9 17:42:13 10° NW 17:46:38 65° WSW 17:50:51 11° SSE
Cosmos 1151 Rocket 2.9 17:42:57 10° NW 17:47:23 81° NE 17:48:55 41° ESE
COSMOS 2487 3.4 17:44:49 10° W 17:48:02 37° SSW 17:48:41 34° SSE
Meteor 1-28 Rocket 3.2 17:47:10 40° NE 17:48:23 75° NW 17:52:09 10° WSW
Meteor 1-21 Rocket 4.3 17:45:19 10° S 17:50:41 50° ESE 17:55:20 14° NE
Meteor 1-27 Rocket 3.8 17:45:43 10° WNW 17:51:38 78° NNE 17:54:13 35° ESE
Ariane Rocket 3.5 17:46:43 10° SSE 17:51:48 62° WSW 17:56:54 10° NW
ADEOS Rocket 2.9 17:47:55 18° NE 17:52:56 79° SE 17:58:50 10° SW
Meteor 1-13 Rocket 4.3 17:47:31 10° W 17:53:10 73° N 17:55:49 33° ENE
Okean 1 3.6 17:49:34 10° WNW 17:53:31 54° N 17:54:16 46° NE
Spot 4 3.9 17:52:18 41° E 17:53:56 69° NNE 17:58:45 10° WNW
Cosmos 1437 2.9 17:51:12 10° WNW 17:53:50 54° NNW 17:53:50 54° NNW
CARTOSAT-1 3.5 17:53:03 43° ESE 17:54:28 83° NE 17:58:49 10° NW
Cosmos 1092 Rocket 4.0 17:49:06 10° S 17:55:05 56° E 18:01:06 10° NNE
Cosmos 1378 Rocket 3.8 17:51:32 10° WSW 17:55:50 62° NNW 17:57:28 36° NE
ARIANE 5 R/B 2.5 17:54:49 37° SE 17:56:33 86° SW 18:00:59 10° NW
Cosmos 1328 Rocket 3.4 17:52:17 10° NW 17:56:43 82° NE 17:58:02 45° ESE
Cosmos 1741 Rocket 4.5 17:51:54 10° WSW 17:57:01 50° S 17:58:49 35° ESE
Helios 1A 3.2 17:55:49 42° NE 17:57:02 61° N 18:01:10 10° W
SL-14 R/B 3.2 17:53:19 10° SSW 17:57:18 78° SE 17:58:24 47° NE
CZ-4C R/B 3.8 18:00:39 34° S 18:00:39 34° S 18:02:40 10° SSW
OBJECT-B 1.4 17:59:19 32° S 18:00:37 57° WSW 18:03:53 10° NW
GP-B 4.1 18:01:06 31° NE 18:01:06 31° NE 18:04:53 10° NNW
USA 186 2.5 18:00:57 37° SW 18:01:26 41° WSW 18:03:57 10° NW
Cosmos 1025 Rocket 3.1 17:57:33 10° SW 18:01:59 81° NW 18:03:52 34° NE
Okean 2 3.7 17:58:09 10° WSW 18:02:19 63° NNW 18:03:45 38° NE
Cosmos 1626 Rocket 3.7 17:58:39 10° S 18:02:59 51° ESE 18:03:25 49° E
Cosmos 1703 Rocket 3.9 17:59:06 10° WNW 18:03:31 56° N 18:04:45 41° NE
Cosmos 1816 Rocket 4.5 17:59:05 10° SW 18:05:16 85° NW 18:10:06 18° NE
COSMO-SKYMED 1 2.9 18:06:08 45° SE 18:06:08 45° SE 18:09:53 10° S
UNK 3.9 18:03:55 36° NE 18:05:45 70° NNW 18:10:20 10° WSW
Nadezhda 4 Rocket 3.9 17:59:50 10° S 18:05:58 67° ESE 18:12:04 10° NNE
Cosmos 2082 Rocket 4.5 18:02:34 10° WNW 18:06:50 22° WSW 18:11:06 10° S
CZ-4 R/B 3.2 18:03:24 10° SSW 18:07:00 32° W 18:10:33 10° NNW
Cosmos 1140 Rocket 4.1 18:05:17 10° W 18:10:19 47° SSW 18:12:25 31° SE
SPOT 5 3.0 18:10:01 35° SE 18:12:23 90° NNE 18:17:41 10° NW
Tsikada Rocket 4.0 18:07:24 10° SW 18:13:41 85° NW 18:18:41 17° NE
SJ-6B 3.7 18:11:09 13° S 18:14:38 51° WSW 18:18:40 10° NW
Cosmos 1536 Rocket 3.6 18:10:33 10° SW 18:15:03 83° NW 18:16:57 35° NE
Resurs 01 Rocket 1.9 18:13:48 27° SSE 18:16:12 67° WSW 18:20:38 10° NW
Landsat 5 3.2 18:16:42 63° E 18:16:59 66° SE 18:20:53 10° SSW
MINOTAUR 4 R/B 4.4 18:16:34 50° NNE 18:17:06 57° NNW 18:20:38 10° W
USA 281 4.1 18:12:41 14° SSE 18:18:06 45° SW 18:24:23 10° WNW
COSMOS 2455 4.1 18:15:04 10° SSW 18:19:25 23° SSE 18:19:25 23° SSE
MetOp-B 4.3 18:17:10 24° SSE 18:20:31 71° SW 18:25:55 10° NW
Cosmos 1515 3.9 18:17:00 10° WNW 18:20:46 55° NNE 18:21:01 53° NNE
Okean 1-7 Rocket 3.5 18:16:36 10° SSW 18:21:10 68° ESE 18:22:42 40° NE
Cosmos 1707 3.0 18:18:06 10° WSW 18:21:56 63° NNW 18:22:50 46° NNE
SL-27 R/B 4.0 18:19:02 10° W 18:22:03 28° SW 18:22:54 25° S
Okean 1-7 3.4 18:17:52 10° WNW 18:22:09 56° N 18:23:02 46° NE
Cosmos 1862 Rocket 3.7 18:18:15 10° WNW 18:22:35 60° NNE 18:23:18 52° ENE
Cosmos 2219 4.0 18:18:01 10° WSW 18:23:14 38° S 18:24:59 31° SE
Cosmos 1844 Rocket 3.8 18:19:18 10° SSW 18:23:01 26° SSE 18:23:01 26° SSE
Cosmos 1271 Rocket 2.7 18:20:23 10° WNW 18:24:25 69° NNE 18:24:48 64° ENE
CZ-4B DEB 4.4 18:24:58 71° NNW 18:24:58 71° NNW 18:27:59 10° NW
USA 245 3.0 18:25:57 63° W 18:25:57 63° W 18:29:02 10° NW
Cosmos 1378 3.6 18:22:19 10° W 18:25:59 51° N 18:26:26 48° NNE
Cosmos 2221 Rocket 4.0 18:22:06 10° W 18:26:38 57° N 18:27:55 41° NE
H-2A R/B 2.1 18:26:04 52° ENE 18:26:54 64° ESE 18:31:20 10° SSW
IGS 5A 3.6 18:26:36 40° SSE 18:28:02 70° WSW 18:32:13 10° NW
Cosmos 2227 Rocket 3.0 18:23:23 10° WSW 18:28:35 38° S 18:30:09 32° SSE
Meteor 1-26 Rocket 4.2 18:24:09 10° NW 18:29:36 75° SW 18:32:22 31° SSE
Cosmos 968 Rocket 3.8 18:27:06 10° SW 18:32:00 46° SSE 18:32:44 43° SE
Cosmos 389 Rocket 4.4 18:28:55 10° NW 18:32:06 30° WSW 18:35:15 10° SSW
Meteor 2-4 Rocket 3.6 18:26:43 10° WNW 18:32:07 73° N 18:33:48 44° E
Meteor 2-5 Rocket 3.6 18:27:08 10° SW 18:32:42 82° SE 18:35:47 28° NE
Cosmos 2221 3.4 18:28:53 10° NNW 18:33:08 49° WSW 18:36:57 13° S
SL-16 R/B 2.5 18:30:57 33° ENE 18:33:58 82° NNW 18:40:10 10° W
Terra 1.7 18:32:49 48° SE 18:34:09 89° SW 18:38:58 10° NW
Resurs 1-3 4.3 18:31:28 20° S 18:34:24 54° WSW 18:38:45 10° NW
SL-08 R/B 3.2 18:33:02 39° NE 18:34:45 85° NNW 18:39:27 10° WSW
DELTA 2 DEB (DPAF) 4.3 18:34:03 43° NE 18:35:25 70° NNW 18:39:53 10° W
Cosmos 2266 Rocket 4.1 18:33:13 32° SE 18:35:31 47° E 18:41:17 10° NNE
Cosmos 2098 Rocket 4.2 18:29:10 10° S 18:36:24 63° ESE 18:42:47 10° NNE
MOS 1 Rocket 3.4 18:37:55 46° SSE 18:37:55 46° SSE 18:41:14 10° SSW
ATLAS 5 CENTAUR R/B 3.9 18:35:59 10° SSW 18:38:05 14° S 18:38:05 14° S
Meteor 1-4 Rocket 3.6 18:35:01 10° NW 18:38:38 46° WSW 18:40:04 30° SSW
RESURS DK-1 4.0 18:35:25 10° SW 18:38:02 22° S 18:38:02 22° S
H-2A R/B 3.7 18:34:03 10° SSW 18:38:50 36° W 18:43:46 10° NNW
Cosmos 1727 Rocket 4.2 18:33:47 10° WNW 18:40:06 64° N 18:42:40 36° ENE
Cosmos 2315 Rocket 4.4 18:35:11 10° NNW 18:41:24 63° WSW 18:47:32 10° S
Cosmos 2026 Rocket 3.9 18:35:29 10° S 18:41:39 66° ESE 18:47:56 10° NNE
Meteor 1-24 Rocket 3.5 18:36:31 10° SW 18:41:52 81° SE 18:44:36 30° NE
Cosmos 2242 Rocket 3.8 18:39:28 10° WNW 18:43:58 59° NNE 18:44:44 51° ENE
Cosmos 1975 Rocket 3.3 18:39:39 10° WSW 18:43:59 62° NNW 18:45:15 42° NE
Helios 1B 4.4 18:43:08 54° NE 18:44:06 82° SE 18:48:29 10° SW
Cosmos 1602 Rocket 3.7 18:41:14 10° SSW 18:44:53 53° SSE 18:44:53 53° SSE
Cosmos 1515 Rocket 3.4 18:41:19 10° NW 18:45:44 88° SW 18:46:23 64° SE
Intercosmos 24 Rocket 4.3 18:41:08 10° NW 18:46:08 77° NE 18:46:31 69° E
Okean 3 3.8 18:42:51 10° WNW 18:47:01 55° N 18:47:36 50° NE
CZ-4C R/B 3.5 18:47:09 54° NNE 18:47:46 63° NNW 18:51:30 10° W
ALOS 2 2.6 18:47:21 60° ENE 18:47:55 68° NNE 18:52:19 10° WNW
Meteor 1-10 Rocket 4.3 18:42:00 10° NW 18:47:58 86° SW 18:50:12 41° SE
Nadezhda 1 Rocket 3.9 18:41:56 10° NW 18:48:03 81° WSW 18:51:10 31° SSE
CZ-4C R/B 4.2 18:45:19 10° SW 18:49:45 21° S 18:51:43 18° SSE
SPOT 3 Rocket 4.1 18:46:10 19° S 18:49:45 55° WSW 18:54:53 10° NW
Cosmos 1606 3.3 18:46:02 10° NW 18:49:48 54° WSW 18:50:51 39° SSW
KORONAS-FOTON 4.1 18:46:01 10° WSW 18:49:57 67° NNW 18:50:37 54° NNE
IRAS Rocket 4.2 18:47:40 36° ENE 18:50:08 83° SSE 18:55:46 10° WSW
Cosmos 2297 Rocket 3.0 18:46:15 10° WSW 18:51:25 37° S 18:52:46 32° SSE
Cosmos 1674 Rocket 4.0 18:48:07 10° W 18:52:34 57° N 18:53:36 45° NE
Cosmos 1782 2.8 18:48:34 10° NW 18:52:35 77° SW 18:52:56 69° S
Cosmos 1892 Rocket 3.4 18:48:25 10° SW 18:52:48 87° SE 18:53:47 54° NE
SJ 16-02 3.0 18:49:02 10° SSW 18:50:51 21° S 18:50:51 21° S
SeaSat 1 3.3 18:53:44 33° SSE 18:53:44 33° SSE 18:57:46 10° SW
SKYMED 2 3.8 18:54:43 54° SSE 18:54:43 54° SSE 18:58:20 10° SSW
Cosmos 1850 Rocket 4.4 18:50:12 10° W 18:55:17 49° S 18:56:17 43° SSE
Cosmos 1812 2.6 18:53:33 10° NW 18:57:24 87° NW 18:57:24 87° NW
Cosmos 2228 Rocket 3.0 18:53:47 10° NW 18:58:22 85° NE 18:58:57 68° ESE
Cosmos 1066 Rocket 4.2 18:53:14 10° W 18:58:40 72° N 19:00:13 46° ENE
Cosmos 1933 3.7 18:55:09 10° NW 18:59:09 62° WSW 18:59:51 52° SSW
Cosmos 407 Rocket 4.3 18:54:25 10° W 18:59:21 42° SSW 19:00:58 33° S
Cosmos 1707 Rocket 3.5 18:59:57 10° NW 19:04:27 74° NE 19:04:47 70° ENE
MOZ.5/SAFIR/RUBIN 5/SL-8 4.0 19:03:57 48° NE 19:05:02 63° N 19:09:43 10° W
COBE Rocket 4.3 19:05:18 45° ENE 19:06:39 60° N 19:11:43 10° WNW
CZ-2C R/B 2.9 19:01:22 10° NNE 19:13:16 - S 19:06:00 48° E
Cosmos 1354 Rocket 4.3 19:02:29 10° SW 19:07:36 47° SSE 19:07:45 47° SSE
Cosmos 1655 Rocket 4.0 19:02:11 10° S 19:08:16 58° ESE 19:14:24 10° NNE
Meteor 1-21 4.3 19:02:45 10° W 19:08:27 74° NNW 19:10:33 40° ENE
Cosmos 2195 Rocket 4.4 19:02:32 10° SSW 19:08:53 76° ESE 19:15:13 10° NE
Cosmos 1842 3.7 19:05:44 10° W 19:09:35 52° N 19:09:53 51° NNE
Cosmos 2082 4.4 19:04:34 10° WSW 19:09:47 38° S 19:10:31 36° SSE
Spot 2 Rocket 3.8 19:07:51 35° S 19:09:53 62° WSW 19:14:57 10° NW
Cosmos 1486 Rocket 4.2 19:05:59 10° WSW 19:11:01 49° S 19:11:17 49° SSE
Landsat 7 4.3 19:10:07 32° S 19:12:09 56° WSW 19:16:53 10° NW
SPOT 1/Viking Rocket 3.9 19:09:57 33° S 19:12:11 61° WSW 19:17:19 10° NW
ERS-1 Rocket 3.1 19:11:31 44° SSE 19:13:05 69° SW 19:18:09 10° NW
Meteor 2-21 4.5 19:11:58 43° SE 19:13:30 53° E 19:19:30 10° NNE
Meteor 1-23 Rocket 4.3 19:08:30 10° W 19:14:16 72° N 19:15:58 46° ENE
Cosmos 1242 Rocket 3.0 19:11:14 10° NW 19:14:12 58° WNW 19:14:12 58° WNW
Cosmos 2263 Rocket 2.9 19:09:50 10° SW 19:14:58 37° SSE 19:14:58 37° SSE
Cosmos 2181 Rocket 3.9 19:10:05 10° NW 19:16:21 89° WSW 19:18:32 45° SE
Meteor 1-11 4.1 19:11:03 10° SSW 19:16:36 60° ESE 19:22:07 10° NE
Meteor 1-18 Rocket 4.2 19:10:59 10° WNW 19:16:38 82° NNE 19:17:58 55° ESE
ASTEX 1 4.1 19:12:05 10° N 19:16:12 39° NE 19:16:12 39° NE
YAOGAN 11 4.1 19:17:12 62° NE 19:17:34 65° NNE 19:21:55 10° WNW
Nadezhda 3 Rocket 3.9 19:11:24 10° NW 19:17:37 77° NE 19:19:20 50° ESE
In-Cosmos 22 4.1 19:12:17 10° WSW 19:17:37 76° NNW 19:19:26 42° ENE
Cosmos 1428 Rocket 4.4 19:12:13 10° SSW 19:18:33 76° ESE 19:24:53 10° NE
Cosmos 1437 Rocket 3.1 19:16:22 10° NW 19:20:25 60° SW 19:20:43 58° SSW
Cosmos 1626 2.4 19:18:05 10° WSW 19:21:42 63° NW 19:21:42 63° NW
Cosmos 1674 3.1 19:18:13 10° WSW 19:22:02 58° NNW 19:22:14 57° N
Meteor 1-28 Rocket 3.7 19:22:06 52° N 19:22:18 53° NNW 19:25:59 10° W
COSMOS 2487 4.1 19:19:28 10° W 19:22:04 26° SW 19:22:04 26° SW
Meteor 2-14 Rocket 4.4 19:22:18 48° SE 19:23:26 55° ESE 19:29:24 10° NNE
Meteor 1-19 Rocket 4.2 19:18:14 10° WNW 19:23:59 84° NNE 19:25:22 55° ESE
Cosmos 1151 Rocket 3.4 19:20:36 10° NW 19:24:58 60° WSW 19:25:45 51° SSW
ATLAS 2AS CENTAUR R/B 4.2 19:19:32 10° WSW 19:25:24 24° SSW 19:27:37 21° S
SL-19 R/B 4.2 19:24:15 44° ENE 19:26:08 86° SSE 19:31:49 10° WSW
Meteor 2-13 Rocket 4.4 19:19:58 10° SW 19:26:11 88° SE 19:32:25 10° NE
Cosmos 1437 4.5 19:23:59 10° WNW 19:25:37 30° NW 19:25:37 30° NW
Meteor 2-6 Rocket 4.5 19:23:07 10° NW 19:29:01 72° SW 19:31:02 43° SSE
Cosmos 2123 Rocket 4.3 19:22:43 10° WNW 19:29:02 64° N 19:31:29 38° ENE
Cosmos 1627 Rocket 4.4 19:23:35 10° SSW 19:29:54 80° ESE 19:36:19 10° NE
Okean 1 3.5 19:26:17 10° NW 19:29:55 65° N 19:29:55 65° N
CARTOSAT-1 3.9 19:30:09 53° SSW 19:30:48 60° WSW 19:35:06 10° NW
Ariane Rocket 4.4 19:26:51 10° SSW 19:31:35 37° W 19:36:20 10° NNW
Spot 4 3.7 19:31:25 72° SE 19:31:56 90° NNE 19:36:48 10° NW
Helios 1A 3.1 19:32:25 65° NNE 19:32:26 65° NNE 19:36:36 10° WNW
USA 186 4.1 19:32:38 18° W 19:32:56 18° W 19:34:51 10° NW
ARIANE 5 R/B 3.2 19:32:21 41° SSW 19:33:24 51° WSW 19:37:43 10° NW
OBJECT-B 2.8 19:32:24 23° SW 19:33:26 27° W 19:36:19 10° NNW
SL-14 R/B 3.5 19:29:39 10° WSW 19:33:39 66° NNW 19:33:50 65° N
Meteor 1-21 Rocket 4.1 19:28:10 10° SW 19:33:47 78° SE 19:37:46 21° NE
Cosmos 1378 Rocket 3.9 19:29:51 10° WNW 19:34:08 55° N 19:34:31 53° NNE
Cosmos 1328 Rocket 3.9 19:30:10 10° NW 19:34:30 59° WSW 19:35:06 53° SSW
Meteor 1-27 Rocket 3.8 19:29:18 10° NW 19:35:12 80° SW 19:36:38 53° SSE
Meteor 2-21 Rocket 4.5 19:35:14 54° ESE 19:35:44 55° ESE 19:41:46 10° NNE
Meteor 1-13 Rocket 4.2 19:31:19 10° WNW 19:36:59 76° NNE 19:38:15 55° E
GP-B 3.7 19:38:32 45° NNE 19:38:32 45° NNE 19:42:04 10° N
Cosmos 1741 Rocket 4.5 19:33:36 10° W 19:38:39 47° SSW 19:39:09 45° S
ADEOS Rocket 3.1 19:34:51 26° ENE 19:38:43 80° NNW 19:44:39 10° WSW
Okean 2 3.9 19:35:29 10° W 19:39:36 54° N 19:39:50 53° NNE
Cosmos 1025 Rocket 3.5 19:35:35 10° W 19:39:57 60° NNW 19:40:45 50° NNE
Cosmos 1092 Rocket 3.8 19:34:08 10° SW 19:40:19 87° SE 19:46:31 10° NE
Cosmos 1503 Rocket 4.3 19:35:10 10° WSW 19:40:12 50° S 19:40:12 50° S
Cosmos 1626 Rocket 3.5 19:36:13 10° SW 19:40:34 85° SSW 19:40:34 85° SSW
Cosmos 1703 Rocket 3.7 19:37:25 10° NW 19:41:53 67° NNE 19:41:55 67° NNE
COSMO-SKYMED 1 3.0 19:43:19 51° SSW 19:43:19 51° SSW 19:46:38 10° SW
UNK 3.9 19:42:15 57° NE 19:42:52 63° N 19:47:26 10° WNW
CZ-4 R/B 4.3 19:40:27 10° WSW 19:43:08 17° WNW 19:45:48 10° NNW
SPOT 5 3.4 19:49:14 43° S 19:50:48 60° WSW 19:56:03 10° NW
Nadezhda 4 Rocket 3.9 19:45:06 10° SW 19:51:19 83° NW 19:57:30 10° NE
Meteor 2-19 Rocket 4.3 19:45:09 10° SSW 19:51:20 79° ESE 19:57:30 10° NE
Cosmos 1140 Rocket 4.5 19:46:41 10° WNW 19:51:28 36° SW 19:52:25 33° SSW
Landsat 5 3.7 19:53:15 62° W 19:53:15 62° W 19:56:37 10° WSW
Cosmos 1536 Rocket 4.0 19:48:50 10° W 19:53:17 60° NNW 19:54:05 51° NNE
Resurs 01 Rocket 2.9 19:51:22 25° SSW 19:53:19 37° W 19:57:29 10° NNW
Cosmos 1515 4.3 19:52:53 10° NW 19:55:55 53° NNW 19:55:55 53° NNW
Cosmos 1707 3.4 19:54:27 10° W 19:57:59 50° NNW 19:57:59 50° NNW
Okean 1-7 Rocket 3.7 19:54:49 10° WSW 19:59:25 76° NW 20:00:10 60° NNE
Tsikada Rocket 4.2 19:53:31 10° WSW 19:59:45 66° NNW 20:03:31 25° ENE
Okean 1-7 3.2 19:55:50 10° NW 19:59:53 67° N 19:59:53 67° N
Cosmos 1271 Rocket 3.2 19:56:33 10° NW 19:59:56 61° WNW 19:59:56 61° WNW
Cosmos 1862 Rocket 3.6 19:56:24 10° NW 20:00:27 75° NNW 20:00:27 75° NNW
Cosmos 1378 4.0 19:58:03 10° WNW 20:01:02 47° NNW 20:01:02 47° NNW
H-2A R/B 2.1 20:03:08 84° NW 20:03:08 84° NW 20:07:35 10° WSW
COSMOS 2455 4.2 19:59:08 10° SW 20:02:33 24° SSW 20:02:33 24° SSW
Cosmos 2221 Rocket 3.8 20:00:49 10° WNW 20:05:21 62° NNE 20:05:23 62° NNE
Cosmos 2219 4.1 20:01:26 10° W 20:06:28 33° SSW 20:06:54 33° SSW
Cosmos 1844 Rocket 3.9 20:01:41 10° SW 20:04:42 27° SSW 20:04:42 27° SSW
Cosmos 2227 Rocket 3.1 20:06:40 10° W 20:11:43 34° SSW 20:11:58 33° SSW
DELTA 2 DEB (DPAF) 4.3 20:11:41 64° NNE 20:11:51 65° N 20:16:18 10° WNW
Terra 2.2 20:11:41 51° SW 20:12:17 55° WSW 20:17:01 10° NW
SL-08 R/B 3.5 20:11:59 60° NNE 20:12:34 68° N 20:17:13 10° W
Cosmos 968 Rocket 3.9 20:08:22 10° W 20:12:44 47° SSW 20:12:44 47° SSW
Meteor 2-4 Rocket 3.4 20:10:03 10° NW 20:15:27 88° NE 20:15:53 77° ESE
MOS 1 Rocket 4.0 20:17:11 38° SW 20:17:11 38° SW 20:19:52 10° SW
Meteor 2-5 Rocket 3.7 20:10:46 10° WSW 20:16:21 77° NNW 20:18:16 43° ENE
Cosmos 2098 Rocket 4.1 20:10:07 10° SW 20:17:30 90° N 20:23:53 10° NE
SL-16 R/B 2.5 20:16:02 53° E 20:17:38 81° NNE 20:23:50 10° WNW
Cosmos 2266 Rocket 3.8 20:17:39 34° SSW 20:20:26 75° ESE 20:26:31 10° NE
ATLAS 5 CENTAUR R/B 4.2 20:18:57 10° SW 20:19:37 11° SW 20:19:37 11° SW
CZ-4C R/B 4.0 20:22:51 51° NNW 20:22:51 51° NNW 20:26:03 10° WNW
Cosmos 1975 Rocket 3.5 20:18:04 10° WNW 20:22:21 55° N 20:22:23 55° N
Cosmos 2242 Rocket 3.7 20:18:00 10° NW 20:22:13 73° NNW 20:22:13 73° NNW
Cosmos 1515 Rocket 4.1 20:19:13 10° NNW 20:23:28 50° WSW 20:23:32 50° WSW
Cosmos 1602 Rocket 4.3 20:19:03 10° SW 20:22:05 44° WSW 20:22:05 44° WSW
ALOS 2 2.7 20:24:44 72° WNW 20:24:44 72° WNW 20:28:45 10° NW
Okean 3 3.9 20:20:29 10° NW 20:24:07 58° NNW 20:24:07 58° NNW
Meteor 1-24 Rocket 3.7 20:19:49 10° WSW 20:25:11 76° NNW 20:26:47 47° NE
Cosmos 1727 Rocket 4.0 20:19:50 10° NW 20:26:12 75° NE 20:27:24 59° E
Cosmos 1745 Rocket 4.2 20:27:15 50° ENE 20:27:15 50° ENE 20:32:35 10° NNE
Cosmos 2026 Rocket 4.0 20:20:40 10° SW 20:26:57 85° NW 20:33:22 10° NE
Cosmos 1809 Rocket 4.3 20:23:27 25° SSW 20:27:16 77° ESE 20:33:29 10° NE
Cosmos 1782 3.9 20:24:53 10° NNW 20:28:32 40° W 20:28:32 40° W
SKYMED 2 4.5 20:31:55 40° WSW 20:31:55 40° WSW 20:34:47 10° WSW
Cosmos 1674 Rocket 3.9 20:26:26 10° WNW 20:30:42 60° N 20:30:42 60° N
Cosmos 1892 Rocket 3.9 20:26:37 10° WSW 20:30:58 64° NNW 20:30:59 64° NNW
SJ 16-02 3.5 20:26:49 10° SW 20:27:51 17° SW 20:27:51 17° SW
IRAS Rocket 4.2 20:29:54 57° ENE 20:31:07 84° N 20:36:45 10° W
SeaSat 1 3.7 20:33:30 29° SW 20:33:30 29° SW 20:36:23 10° WSW
Meteor 2-20 4.4 20:25:37 10° NW 20:31:47 75° NNE 20:32:48 61° E
Cosmos 1812 3.8 20:29:23 10° NW 20:32:28 43° WNW 20:32:28 43° WNW
Cosmos 2297 Rocket 3.3 20:29:36 10° W 20:34:28 30° SW 20:34:34 30° SSW
CZ-4C R/B 4.3 20:32:17 10° WSW 20:36:22 18° SSW 20:36:54 18° SSW
Cosmos 2228 Rocket 3.5 20:32:04 10° NW 20:36:26 58° WSW 20:36:26 58° WSW
Nadezhda 2 Rocket 4.3 20:41:51 67° ESE 20:41:51 67° ESE 20:47:55 10° NNE
Cosmos 1066 Rocket 4.0 20:36:27 10° WNW 20:41:53 83° NNE 20:42:08 80° ENE
Cosmos 1707 Rocket 3.9 20:37:57 10° NW 20:41:55 63° WNW 20:41:55 63° WNW
MOZ.5/SAFIR/RUBIN 5/SL-8 3.9 20:42:36 71° N 20:42:36 71° N 20:47:11 10° WNW
Cosmos 1709 Rocket 4.4 20:44:42 46° ENE 20:44:42 46° ENE 20:49:49 10° NNE
COBE Rocket 4.0 20:44:47 74° NE 20:44:56 75° NE 20:50:07 10° NW
Cosmos 1842 4.3 20:42:10 10° WNW 20:45:10 44° NNW 20:45:10 44° NNW
CZ-2C R/B 2.5 20:42:04 10° NE 20:54:43 - SW 20:47:34 80° SE
Cosmos 1244 Rocket 4.4 20:47:54 68° ESE 20:48:01 68° ESE 20:54:11 10° NNE
Cosmos 1242 Rocket 4.4 20:46:06 10° NW 20:48:11 29° WNW 20:48:11 29° WNW
Meteor 1-21 4.2 20:46:28 10° WNW 20:52:10 75° NNE 20:52:54 65° ENE
ERS-1 Rocket 3.9 20:51:30 36° SW 20:52:34 41° W 20:57:23 10° NNW
Meteor 2-16 Rocket 4.3 20:52:57 71° SSE 20:53:25 75° ESE 20:59:34 10° NE
Cosmos 1655 Rocket 3.9 20:47:33 10° SW 20:53:49 88° SE 21:00:08 10° NE
YAOGAN 11 4.5 20:54:48 61° NW 20:54:48 61° NW 20:58:27 10° NW
Cosmos 1339 Rocket 4.3 20:49:05 10° NW 20:55:18 89° NE 20:56:00 72° SE
Meteor 1-28 Rocket 4.5 20:57:02 39° NW 20:57:02 39° NW 20:59:45 10° WNW
Cosmos 1437 Rocket 4.3 20:52:34 10° NW 20:56:07 32° W 20:56:07 32° W
ASTEX 1 3.7 20:51:29 10° N 20:55:43 59° NE 20:55:43 59° NE
Cosmos 1626 3.7 20:53:48 10° W 20:56:13 34° WNW 20:56:13 34° WNW
Meteor 1-23 Rocket 4.1 20:52:05 10° WNW 20:57:52 84° NNE 20:58:14 78° E
Cosmos 1674 4.0 20:54:13 10° WNW 20:57:02 40° NW 20:57:02 40° NW
Cosmos 2263 Rocket 3.3 20:52:54 10° WSW 20:56:39 32° SW 20:56:39 32° SW
Meteor 2-21 4.3 20:56:00 43° SSW 20:58:11 83° SE 21:04:25 10° NE
Meteor 1-11 4.1 20:54:04 10° SW 20:59:45 89° SE 21:05:23 10° NE
Resurs 1-4 Rocket 4.3 20:57:31 10° NNE 21:00:02 13° NE 21:01:20 12° NE
Meteor 1-18 Rocket 4.2 20:54:33 10° NW 21:00:10 73° SW 21:00:27 71° SSW
In-Cosmos 22 4.1 20:55:14 10° WNW 21:00:33 72° N 21:01:01 68° NE
Cosmos 2181 Rocket 4.3 20:55:42 10° NNW 21:01:49 59° WSW 21:03:23 46° SSW
Cosmos 1151 Rocket 4.4 20:58:07 10° NNW 21:02:04 32° W 21:02:37 31° WSW
Nadezhda 3 Rocket 3.9 20:57:04 10° NW 21:03:15 75° WSW 21:04:03 65° S
OBJECT-B 3.8 21:05:30 12° W 21:06:42 14° WNW 21:08:31 10° NW
Okean 1 4.4 21:02:46 10° NW 21:05:34 42° NW 21:05:34 42° NW
Meteor 1-19 Rocket 4.3 21:01:40 10° NW 21:07:22 70° SW 21:07:44 68° SSW
Helios 1A 3.7 21:09:01 51° NW 21:09:01 51° NW 21:12:13 10° NW
Meteor 2-14 Rocket 4.3 21:06:16 49° SSW 21:08:05 85° SE 21:14:16 10° NE
SL-14 R/B 4.5 21:06:17 10° W 21:09:16 42° NW 21:09:16 42° NW
Spot 4 4.2 21:10:32 57° WSW 21:10:32 57° WSW 21:15:04 10° NW
ARIANE 5 R/B 4.2 21:09:53 26° WSW 21:10:42 28° W 21:14:32 10° NNW
SL-19 R/B 4.2 21:10:18 74° E 21:10:50 87° N 21:16:30 10° W
Cosmos 1378 Rocket 4.2 21:08:03 10° NW 21:11:35 53° NNW 21:11:35 53° NNW
ATLAS 2AS CENTAUR R/B 4.4 21:09:08 10° W 21:14:11 19° SW 21:15:03 19° SW
GP-B 3.7 21:15:58 54° N 21:15:58 54° N 21:19:28 10° N
Cosmos 2123 Rocket 4.1 21:08:45 10° NW 21:15:06 74° NNE 21:16:11 61° E
Meteor 2-20 Rocket 4.3 21:09:17 10° NW 21:15:27 81° NE 21:16:06 71° E
Okean 2 4.3 21:12:44 10° WNW 21:15:56 47° NNW 21:15:56 47° NNW
Meteor 1-21 Rocket 4.2 21:11:41 10° WSW 21:17:20 79° NNW 21:20:12 31° ENE
Cosmos 1025 Rocket 3.7 21:13:43 10° WNW 21:17:39 54° NNW 21:17:39 54° NNW
Meteor 1-27 Rocket 4.2 21:12:37 10° NNW 21:18:19 51° WSW 21:19:04 48° SW
COSMO-SKYMED 1 4.0 21:20:31 30° W 21:20:31 30° W 21:22:50 10° WSW
Cosmos 1626 Rocket 4.4 21:14:22 10° WSW 21:17:43 47° W 21:17:43 47° W
UNK 4.1 21:20:35 63° NNW 21:20:35 63° NNW 21:24:36 10° WNW
Cosmos 1703 Rocket 4.2 21:15:31 10° NW 21:19:05 56° NW 21:19:05 56° NW
Meteor 2-21 Rocket 4.3 21:19:20 61° SSW 21:20:30 85° SE 21:26:44 10° NE
Meteor 1-13 Rocket 4.1 21:14:56 10° NW 21:20:37 83° SW 21:20:42 83° SSW
Intercosmos 25 Rocket 4.5 21:24:06 51° NE 21:24:06 51° NE 21:28:58 10° NE
ADEOS Rocket 3.2 21:21:49 41° ENE 21:24:14 75° N 21:30:14 10° W
Meteor 2-3 Rocket 4.4 21:26:19 41° ENE 21:26:19 41° ENE 21:30:07 10° NE
Cosmos 1092 Rocket 4.2 21:19:53 10° WSW 21:26:03 70° NNW 21:32:14 10° ENE
SL-08 R/B 4.4 21:27:51 74° SE 21:27:58 74° ESE 21:34:20 10° NNE
CZ-2D R/B 4.2 21:26:04 10° NNE 21:29:07 15° NE 21:30:14 14° ENE
SPOT 5 4.2 21:28:28 32° WSW 21:29:42 36° W 21:34:36 10° NNW
Resurs 01 Rocket 3.9 21:28:55 16° WSW 21:30:57 21° WNW 21:34:22 10° NNW
Cosmos 1536 Rocket 4.2 21:27:14 10° WNW 21:31:15 54° NNW 21:31:15 54° NNW
Cosmos 1707 4.3 21:30:45 10° WNW 21:33:08 34° NW 21:33:08 34° NW
Cosmos 1271 Rocket 4.3 21:32:33 10° NW 21:35:03 33° WNW 21:35:03 33° WNW
Nadezhda 4 Rocket 4.3 21:30:58 10° W 21:37:08 65° NNW 21:43:15 10° ENE
Okean 1-7 3.9 21:33:33 10° NW 21:36:44 47° NW 21:36:44 47° NW
Okean 1-7 Rocket 4.2 21:33:27 10° W 21:37:37 56° NW 21:37:37 56° NW
Cosmos 1862 Rocket 4.5 21:34:22 10° NW 21:37:36 44° WNW 21:37:36 44° WNW
H-2A R/B 3.0 21:40:13 47° WNW 21:40:13 47° WNW 21:43:30 10° W
Cosmos 1000 Rocket 4.3 21:35:37 10° NW 21:41:49 84° NE 21:42:15 77° ESE
Cosmos 2074 Rocket 4.4 21:44:07 49° E 21:44:07 49° E 21:49:40 10° NNE
Cosmos 2221 Rocket 4.3 21:39:18 10° NW 21:42:51 54° NW 21:42:51 54° NW
Tsikada Rocket 4.3 21:39:49 10° WNW 21:46:01 64° N 21:48:21 38° ENE
In-Cosmos 22 Rocket 4.3 21:47:11 67° NE 21:47:11 67° NE 21:51:58 10° NE
Cosmos 1844 Rocket 4.5 21:44:37 10° WSW 21:46:23 19° WSW 21:46:23 19° WSW
SL-08 R/B 3.7 21:50:57 59° NW 21:50:57 59° NW 21:54:56 10° WNW
Terra 3.1 21:50:33 31° W 21:50:54 32° W 21:55:12 10° NNW
SL-08 ROCKET BODY 4.3 21:54:20 74° ENE 21:54:20 74° ENE 21:59:45 10° NE
Cosmos 2227 Rocket 3.7 21:50:07 10° WNW 21:53:48 24° WSW 21:53:48 24° WSW
Meteor 2-4 Rocket 3.9 21:53:07 10° NW 21:57:58 59° W 21:57:58 59° W
Cosmos 2098 Rocket 4.4 21:51:46 10° WSW 21:59:02 71° NNW 22:05:17 10° ENE
Meteor 2-5 Rocket 3.8 21:54:36 10° WNW 22:00:11 73° N 22:00:44 67° NE
Cosmos 1975 Rocket 4.0 21:56:21 10° NW 21:59:32 45° NW 21:59:32 45° NW
Cosmos 2242 Rocket 4.5 21:56:19 10° NW 21:59:42 47° WNW 21:59:42 47° WNW
ALOS 2 3.7 22:02:07 40° WNW 22:02:07 40° WNW 22:05:22 10° NW
SL-16 R/B 2.3 22:01:07 80° SSE 22:01:26 85° SW 22:07:40 10° NW
Cosmos 2266 Rocket 4.0 22:02:04 24° WSW 22:05:55 77° NW 22:12:02 10° NE
Meteor 1-24 Rocket 3.7 22:03:21 10° WNW 22:08:43 72° N 22:08:58 71° NNE
Cosmos 1674 Rocket 4.5 22:04:33 10° NW 22:07:49 47° NW 22:07:49 47° NW
Intercosmos 25 4.4 22:02:08 10° WNW 22:10:01 73° NNE 22:10:34 68° ENE
SeaSat 1 4.4 22:13:16 19° WSW 22:13:16 19° WSW 22:14:47 10° W
Cosmos 1745 Rocket 3.8 22:11:54 81° ESE 22:11:54 81° ESE 22:17:57 10° NE
Cosmos 1727 Rocket 3.9 22:05:34 10° NW 22:11:55 79° WSW 22:12:08 78° SSW
IRAS Rocket 4.2 22:12:09 85° NW 22:12:09 85° NW 22:17:40 10° WNW
Cosmos 2026 Rocket 4.3 22:06:29 10° WSW 22:12:44 67° NNW 22:19:05 10° ENE
Meteor 2-20 4.3 22:10:46 10° NW 22:16:53 79° WSW 22:16:54 79° SW
Cosmos 2297 Rocket 3.9 22:13:05 10° WNW 22:16:22 20° WSW 22:16:22 20° WSW
MOZ.5/SAFIR/RUBIN 5/SL-8 4.4 22:21:15 52° NW 22:21:15 52° NW 22:24:51 10° NW
COBE Rocket 4.3 22:24:15 64° WNW 22:24:15 64° WNW 22:28:45 10° NW
Cosmos 1066 Rocket 4.4 22:19:25 10° NW 22:24:03 60° WNW 22:24:03 60° WNW
Cosmos 1386 Rocket 4.3 22:27:18 85° ESE 22:27:18 85° ESE 22:33:26 10° NE
Nadezhda 2 Rocket 4.4 22:26:34 68° WSW 22:27:22 83° NW 22:33:33 10° NE
CZ-2C R/B 2.8 22:22:34 10° ENE 22:28:02 76° NNW 22:29:08 57° W
Cosmos 1709 Rocket 3.9 22:29:20 74° E 22:29:20 74° E 22:35:09 10° NE
Cosmos 1626 4.5 22:29:28 10° WNW 22:30:46 20° NW 22:30:46 20° NW
Cosmos 1244 Rocket 4.4 22:32:33 66° WSW 22:33:29 83° NW 22:39:44 10° NE
ASTEX 1 3.8 22:30:40 10° NNE 22:35:14 64° NNW 22:35:14 64° NNW
Meteor 1-21 4.2 22:30:01 10° NW 22:35:14 75° WNW 22:35:14 75° WNW
MOS 1-B Rocket 4.0 22:31:30 10° NE 22:36:16 62° ENE 22:36:16 62° ENE
Meteor 2-16 Rocket 4.5 22:37:00 54° WSW 22:38:28 78° NW 22:44:39 10° NE
Cosmos 1447 Rocket 4.4 22:32:20 10° NW 22:38:37 82° NE 22:39:01 77° E
Cosmos 1655 Rocket 4.2 22:33:39 10° WSW 22:39:53 69° NNW 22:46:10 10° ENE
Cosmos 2263 Rocket 3.9 22:36:08 10° W 22:38:21 20° W 22:38:21 20° W
Meteor 1-23 Rocket 4.4 22:35:25 10° NW 22:40:30 64° W 22:40:30 64° W
Cosmos 2154 Rocket 4.2 22:41:41 57° E 22:41:41 57° E 22:47:27 10° NNE
Resurs 1-4 Rocket 3.9 22:38:01 10° NNE 22:41:57 21° ENE 22:42:25 20° ENE
Cosmos 2341 Rocket 4.4 22:42:09 50° E 22:42:09 50° E 22:48:06 10° NNE
Meteor 1-11 4.3 22:37:37 10° W 22:43:17 74° NNW 22:48:54 10° ENE
ADEOS II 4.2 22:39:49 10° NNE 22:43:17 17° NE 22:44:43 16° ENE
In-Cosmos 22 4.3 22:38:03 10° WNW 22:42:37 66° NW 22:42:37 66° NW
SL-8 Rocket 4.5 22:44:50 47° E 22:44:50 47° E 22:50:41 10° NNE
Nadezhda 3 Rocket 4.5 22:42:27 10° NNW 22:48:18 46° W 22:48:47 46° WSW
DMSP B5D2-2 4.2 22:43:44 10° ENE 22:48:38 71° NNE 22:48:38 71° NNE
GP-B 4.2 22:53:24 42° NW 22:53:24 42° NW 22:57:03 10° N
SL-19 R/B 4.4 22:56:21 67° W 22:56:21 67° W 23:01:13 10° WNW
Cosmos 1025 Rocket 4.3 22:51:42 10° NW 22:54:32 38° NW 22:54:32 38° NW
Meteor 2-20 Rocket 4.4 22:54:21 10° NW 23:00:13 70° W 23:00:13 70° W
Cosmos 2123 Rocket 3.9 22:54:27 10° NW 23:00:50 81° WSW 23:00:52 81° SW
Meteor 1-21 Rocket 4.3 22:55:29 10° W 23:01:08 73° N 23:02:38 50° ENE
Meteor 2-3 Rocket 3.9 23:08:36 65° ENE 23:08:36 65° ENE 23:13:21 10° NE
Cosmos 2184 Rocket 3.9 23:08:45 71° E 23:08:45 71° E 23:14:36 10° NNE
Resurs 01 Rocket 4.4 23:07:10 10° WNW 23:09:06 13° NW 23:11:03 10° NNW
ADEOS Rocket 3.0 23:08:45 65° ESE 23:09:48 84° NNE 23:15:54 10° WNW
CZ-2D R/B 3.7 23:06:50 10° NNE 23:11:09 24° ENE 23:11:33 24° E
Cosmos 1092 Rocket 4.3 23:05:59 10° W 23:12:07 63° N 23:18:14 10° E
H-2A R/B 3.8 23:17:17 27° WNW 23:17:17 27° WNW 23:19:23 10° WNW
Cosmos 1610 Rocket 4.5 23:23:25 68° E 23:23:25 68° E 23:29:14 10° NNE
Nadezhda 4 Rocket 4.3 23:16:59 10° WNW 23:23:08 64° N 23:29:15 10° E
Cosmos 1816 Rocket 4.5 23:17:05 10° NW 23:23:16 76° NE 23:24:04 66° E
Cosmos 1980 Rocket 4.3 23:25:06 14° E 23:25:06 14° E 23:27:01 10° ENE
Intercosmos 25 Rocket 4.3 23:24:46 66° NNW 23:24:46 66° NNW 23:31:22 10° ENE
SL-08 R/B 4.4 23:29:55 38° NW 23:29:55 38° NW 23:32:48 10° NW
Cosmos 2074 Rocket 3.9 23:28:48 79° ESE 23:28:48 79° ESE 23:35:04 10° NE
In-Cosmos 22 Rocket 4.3 23:28:54 69° NW 23:29:23 74° NNW 23:34:56 10° ENE
Terra 3.9 23:29:26 18° WNW 23:30:03 19° WNW 23:33:26 10° NNW
Tsikada Rocket 4.0 23:25:58 10° NW 23:32:12 76° NE 23:33:11 63° E
Meteor 2-17 Rocket 4.3 23:36:21 88° ESE 23:36:21 88° ESE 23:42:30 10° NE
Cosmos 2227 Rocket 4.3 23:33:52 10° WNW 23:35:37 14° W 23:35:37 14° W
ALOS 2 4.5 23:39:30 24° WNW 23:39:30 24° WNW 23:42:04 10° NNW
SL-08 ROCKET BODY 4.4 23:38:00 68° WNW 23:38:33 73° NNW 23:44:26 10° NE
Cosmos 2098 Rocket 4.4 23:33:42 10° W 23:40:51 64° N 23:46:54 10° E
Sich 1 4.5 23:45:26 33° NE 23:45:26 33° NE 23:47:53 10° NE
Meteor 2-5 Rocket 3.8 23:38:21 10° WNW 23:43:13 69° NW 23:43:13 69° NW
SL-16 R/B 2.7 23:46:12 57° W 23:46:12 57° W 23:51:43 10° NW
USA 81 4.5 23:47:15 56° ENE 23:47:15 56° ENE 23:51:51 10° NNE
Cosmos 2266 Rocket 4.3 23:46:29 14° W 23:51:49 63° N 23:57:52 10° ENE
Meteor 1-24 Rocket 3.9 23:46:46 10° WNW 23:51:10 61° NW 23:51:10 61° NW
